GFSFLT2_sfc_thetae_000.txt.gz
Theta_e
341 342 341 338 337 336 337 338 339 340 340 341 341 341 341 341 341 341 342 342 341 340 339 338 336 335 335 335 334 335 337 334
338 341 341 341 341 331 332 333 335 336 339 337 336 337 338 338 336 338 340 340 340 339 337 336 335 334 332 331 332 333 337 334
335 338 339 338 336 331 335 335 334 334 335 333 334 339 336 336 327 328 333 335 336 337 336 334 333 331 329 328 328 333 334 334
325 332 334 336 331 334 341 340 339 338 338 337 338 336 333 329 325 326 324 324 323 333 333 331 330 333 330 322 326 325 327 328
319 323 328 333 334 338 337 334 335 334 334 334 334 328 326 332 325 323 322 321 323 321 331 332 332 332 330 328 321 319 324 325
314 320 325 328 329 330 329 328 327 327 330 333 334 331 332 327 326 324 320 322 321 322 325 325 329 332 329 324 326 322 323 322
311 315 319 322 324 323 323 322 321 321 322 327 328 329 329 329 323 324 322 324 323 322 324 326 326 327 327 326 326 324 322 321
309 311 316 317 320 319 318 317 315 316 317 321 325 326 328 329 323 322 325 326 327 325 325 325 326 326 327 329 328 328 325 324
308 309 312 313 315 314 312 311 311 312 315 320 321 322 324 323 321 319 319 323 324 326 325 326 328 327 326 326 326 327 327 324
307 305 309 310 311 311 310 310 311 312 315 316 316 316 317 317 317 317 318 318 317 315 314 316 320 321 322 323 323 325 326 327
306 307 307 308 309 309 311 311 310 310 312 312 312 311 312 311 312 313 313 311 312 311 311 315 314 314 316 323 322 320 326 324
306 306 307 307 307 308 308 309 310 310 309 309 309 310 309 309 309 310 309 307 305 306 306 307 309 312 309 314 322 326 326 324
305 305 306 306 305 305 306 306 307 309 309 308 308 309 308 309 308 307 308 306 306 305 304 304 304 307 305 309 314 321 323 321
305 305 306 306 306 306 307 306 306 308 308 308 308 308 308 307 306 305 306 305 305 305 305 302 302 304 301 300 305 314 319 319
306 305 305 306 306 305 305 305 305 304 305 306 307 308 308 309 307 307 306 306 304 305 304 303 300 301 302 301 296 300 303 313
306 306 305 305 306 304 304 302 301 303 304 305 306 307 308 308 308 308 308 307 305 304 303 304 302 300 301 301 304 300 295 296
307 305 305 304 305 305 304 303 303 304 304 304 305 306 306 306 307 307 308 307 306 306 305 304 303 301 300 300 300 299 299 298
307 305 304 304 304 304 304 303 303 301 302 301 301 302 302 303 303 304 304 304 304 304 305 304 304 302 301 300 298 296 296 296
304 303 302 303 303 303 303 303 302 300 299 299 298 298 298 299 300 299 299 300 300 300 301 301 302 301 301 300 300 299 299 297
304 302 301 302 301 301 301 300 299 299 296 298 297 296 295 297 296 297 297 297 298 298 297 298 299 301 301 301 300 299 298 298

GFSFLT2_sfc_thetae_003.txt.gz
Theta_e
342 343 340 338 335 334 334 336 336 338 340 340 340 340 340 338 333 334 335 337 336 337 338 337 334 335 335 336 335 336 336 335
339 341 340 341 341 332 333 334 334 336 337 336 335 338 337 330 330 329 328 329 327 331 334 334 334 334 333 332 332 334 335 333
339 340 340 338 335 331 334 336 334 335 334 332 332 338 336 335 328 327 327 326 325 325 321 329 332 332 331 331 330 331 332 334
329 335 338 337 333 333 339 338 337 337 337 337 337 337 336 334 331 327 327 326 324 322 320 320 328 332 331 327 325 327 330 331
324 330 335 337 335 336 336 336 336 335 336 335 334 332 333 332 333 333 331 324 327 321 319 319 318 320 324 329 327 327 327 329
320 326 332 332 333 333 333 331 331 330 332 333 332 330 331 332 329 329 329 329 325 322 320 320 319 320 320 324 326 328 329 330
318 322 327 330 329 327 326 324 323 323 324 326 327 326 328 329 326 326 325 326 325 325 322 320 323 324 324 323 325 327 328 327
316 320 322 324 324 323 321 320 318 318 320 322 325 325 327 326 326 324 322 325 327 327 326 325 325 325 323 325 327 327 328 328
315 316 319 319 319 317 315 314 315 316 318 321 320 320 320 319 318 318 318 321 322 320 317 322 325 326 326 326 326 327 329 328
313 309 314 315 315 314 313 313 314 315 317 317 317 316 316 317 316 315 315 315 315 315 315 316 318 321 319 322 325 325 325 326
311 311 311 312 313 312 314 314 312 313 314 313 314 312 312 312 312 312 311 310 309 307 307 310 309 313 314 314 317 324 325 324
311 311 311 311 310 311 311 311 312 312 312 311 312 310 310 310 310 311 310 308 307 307 306 306 305 306 306 306 312 321 324 325
309 309 310 309 308 307 308 308 309 310 310 310 310 309 309 310 308 308 309 307 307 308 307 306 304 305 303 305 306 311 317 325
309 309 309 309 308 309 309 309 308 309 310 310 310 310 310 309 308 307 307 306 308 307 306 304 304 306 301 300 299 303 309 313
310 309 309 309 309 308 307 308 307 306 307 308 310 310 310 310 309 308 308 307 305 307 306 304 301 305 307 301 295 295 302 304
312 311 310 309 309 307 308 304 303 305 307 307 307 309 309 309 309 308 307 307 306 307 305 307 306 301 304 303 306 302 295 295
313 311 310 309 309 309 307 306 306 305 306 306 307 307 308 307 307 307 306 306 307 308 308 308 306 305 303 302 304 303 303 299
313 311 310 309 308 307 307 306 306 304 305 304 305 305 305 305 303 304 304 304 303 305 307 306 305 305 305 304 302 300 298 299
311 310 309 309 308 308 308 307 306 304 303 301 300 299 300 300 301 302 300 300 300 300 301 302 301 300 302 302 302 302 302 301
310 309 308 308 307 306 306 305 303 303 301 299 298 298 298 299 298 298 298 298 298 299 299 299 300 300 301 301 300 302 302 302

GFSFLT2_sfc_thetae_006.txt.gz
Theta_e
340 341 340 338 336 336 336 337 338 339 340 339 340 340 337 336 336 335 333 333 335 337 337 337 337 337 336 336 334 335 331 332
338 340 341 337 332 333 333 336 337 337 338 338 339 337 334 332 332 332 331 332 328 327 326 331 335 335 334 333 333 333 330 330
338 337 340 339 337 333 334 336 336 335 335 335 333 337 334 331 329 330 328 327 327 325 323 324 326 330 333 333 331 328 327 328
328 333 336 337 334 332 339 337 336 336 336 334 334 334 331 330 329 328 327 325 324 323 321 320 321 320 323 329 325 323 322 327
324 331 335 337 336 336 335 334 334 334 334 333 331 329 329 329 329 328 327 323 322 321 320 318 317 319 319 321 324 324 324 321
323 330 332 333 332 330 331 329 330 328 329 330 329 327 326 325 325 323 323 324 322 321 318 317 316 319 319 318 320 324 325 325
320 325 328 330 328 328 326 324 323 322 323 323 326 324 324 323 322 321 321 321 320 320 319 318 317 319 320 320 319 320 323 325
320 321 325 325 326 325 323 321 319 319 319 321 323 323 322 322 320 319 318 319 319 321 320 321 321 321 321 322 322 320 322 324
317 319 322 322 322 320 319 316 316 316 318 318 318 320 316 315 314 314 314 315 315 315 315 315 317 321 321 322 323 323 323 324
316 313 316 317 317 315 314 314 315 315 317 317 315 315 315 313 312 311 310 311 310 307 307 308 311 313 316 316 316 319 322 323
313 313 312 314 314 313 313 314 312 314 315 314 313 312 312 309 310 310 309 307 306 304 303 303 302 303 304 308 307 310 314 320
313 312 312 313 312 312 312 312 312 311 312 311 311 310 309 308 308 308 307 306 305 304 303 303 303 302 302 301 302 304 311 317
311 310 311 310 309 308 307 307 309 310 310 311 310 309 309 308 307 306 307 305 304 304 303 302 301 303 300 299 299 301 302 305
311 310 310 309 308 308 308 309 308 308 309 309 309 310 309 308 307 305 305 304 304 304 303 300 301 301 299 297 294 296 301 301
312 310 310 310 309 308 308 308 306 305 306 306 308 309 310 309 308 306 305 305 303 303 302 301 298 300 300 297 293 291 295 298
313 312 310 310 310 306 306 303 301 303 304 305 306 309 308 308 307 307 305 304 303 303 304 302 300 297 299 302 299 297 293 292
313 312 311 310 310 308 305 304 304 304 305 305 305 305 306 306 306 306 304 304 303 301 301 301 301 299 298 298 297 298 298 295
313 312 310 311 310 309 307 303 304 303 303 302 303 303 303 304 303 301 301 300 299 298 298 298 298 297 297 297 296 294 294 294
313 311 309 310 310 309 307 306 305 303 303 302 301 299 299 299 299 298 298 297 297 297 296 295 295 295 294 294 295 295 296 295
310 309 308 309 309 308 307 306 304 303 303 301 298 297 298 298 297 297 297 297 296 296 295 294 294 294 293 294 295 295 295 295

GFSFLT2_sfc_thetae_009.txt.gz
Theta_e
334 337 337 336 335 335 335 335 337 338 338 338 339 337 336 337 336 335 336 336 337 336 336 336 336 336 335 334 333 334 331 330
332 334 333 331 329 332 333 334 334 336 337 337 335 333 333 333 332 334 333 333 332 331 332 333 333 332 332 331 331 332 329 327
324 327 332 329 327 330 332 334 334 334 334 334 332 330 329 327 330 330 329 328 327 325 326 328 325 326 328 329 330 326 325 325
322 324 326 329 332 329 329 332 331 330 332 328 330 331 329 326 328 329 328 326 325 323 321 321 319 318 319 327 323 322 322 322
319 324 326 326 326 330 329 327 327 327 326 327 324 324 323 324 323 323 321 323 318 319 318 316 315 316 316 317 320 319 320 322
319 322 323 323 322 323 323 324 322 323 323 324 322 321 320 320 319 319 318 318 317 316 315 314 313 315 316 316 317 319 320 321
315 320 320 322 319 318 317 316 315 315 317 317 318 318 318 318 317 315 317 317 318 315 315 314 314 314 316 316 317 319 319 320
312 315 317 318 317 315 314 312 311 312 313 315 317 316 315 316 316 315 313 314 314 313 312 315 315 318 319 318 319 319 318 319
311 311 314 314 315 313 311 310 311 310 312 312 312 314 311 310 309 309 308 310 311 310 309 310 310 313 315 318 319 322 321 320
309 312 312 311 311 311 310 306 307 309 311 310 310 310 311 308 308 306 305 306 305 301 300 299 300 300 302 307 313 313 314 315
306 304 306 307 306 306 306 306 306 308 310 309 309 309 308 304 306 305 304 304 302 301 300 299 298 298 299 298 298 299 303 307
305 304 304 306 305 303 304 304 304 305 307 307 308 307 306 303 304 304 303 302 301 301 299 300 299 298 301 300 297 300 300 302
304 303 304 303 301 301 300 301 303 303 303 306 306 306 305 303 302 303 303 301 301 300 300 298 297 299 297 296 296 297 298 298
303 304 303 303 302 301 301 301 302 303 304 304 305 305 304 303 302 301 301 300 299 299 300 298 298 298 296 294 291 294 296 298
305 304 303 303 303 302 301 301 301 300 301 301 303 304 305 304 303 302 301 300 299 299 298 297 295 297 297 295 291 289 293 296
305 306 305 304 303 300 300 299 298 299 300 300 301 304 305 305 304 303 301 300 299 299 301 299 297 294 296 299 297 296 293 291
306 306 306 306 303 302 300 299 300 301 301 300 300 302 304 304 302 302 301 300 299 297 295 295 297 296 295 295 294 295 294 293
305 305 305 306 305 304 302 300 301 299 299 299 300 301 300 299 299 297 297 295 296 294 294 294 292 293 294 294 293 291 291 291
303 304 304 305 304 304 304 303 301 300 299 298 297 297 296 296 296 296 295 296 296 295 294 294 293 292 291 292 293 293 293 292
303 304 304 304 304 303 303 303 303 301 301 299 295 295 296 296 295 295 295 295 295 295 294 293 292 291 290 290 292 293 294 293

GFSFLT2_sfc_thetae_012.txt.gz
Theta_e
333 334 336 336 335 334 334 336 337 338 338 339 337 336 336 336 336 337 337 337 337 336 332 332 334 333 334 334 332 333 330 330
330 331 332 328 329 333 332 333 334 336 336 335 333 333 334 334 334 334 334 333 332 333 334 334 332 331 331 331 330 330 326 325
330 330 330 327 324 329 332 334 333 334 334 334 330 328 327 327 330 332 330 328 327 326 325 326 324 325 326 328 329 325 322 321
320 323 326 327 329 327 327 331 330 329 329 329 329 326 324 325 327 329 327 326 325 323 322 321 318 315 316 321 322 321 320 321
320 323 324 323 325 325 327 326 326 326 327 325 325 323 323 322 320 322 319 322 317 317 315 314 313 313 313 314 316 317 318 320
319 322 322 320 322 325 324 323 323 322 322 322 320 319 318 318 318 318 317 316 314 314 313 313 311 311 312 313 314 315 318 319
317 319 320 319 317 315 314 315 316 316 316 317 318 319 317 317 316 313 314 314 314 313 317 318 315 313 314 314 314 315 317 318
315 316 318 318 315 314 311 311 310 311 313 314 316 316 315 316 314 314 312 313 312 310 309 309 309 311 314 316 316 316 319 319
312 313 314 313 315 313 311 309 309 310 311 311 312 313 310 311 310 309 310 310 310 307 306 304 303 305 303 306 312 313 312 314
309 314 312 312 313 312 310 309 307 308 310 309 309 311 310 307 306 305 304 306 305 299 299 297 297 297 297 298 303 302 302 303
306 307 309 308 308 308 306 306 304 306 309 308 309 309 308 304 306 304 303 303 300 299 298 298 296 297 298 298 297 296 298 301
304 301 305 305 303 302 302 302 302 303 307 307 308 307 307 302 304 303 302 301 300 299 297 298 298 297 300 298 296 297 297 297
303 302 301 302 300 299 298 300 301 301 303 308 307 306 305 302 301 303 302 300 299 299 298 297 296 297 295 295 295 295 296 297
301 302 302 301 300 299 299 299 300 301 302 302 306 305 304 302 301 301 300 300 299 299 299 297 296 296 294 292 290 293 294 296
303 302 301 302 301 300 299 299 299 299 299 300 302 304 304 303 301 301 299 299 298 297 297 296 294 296 295 293 289 287 293 295
302 304 303 302 302 299 298 299 299 300 300 299 301 303 303 303 302 301 300 299 298 298 298 296 295 293 295 298 295 293 289 288
304 305 304 305 303 301 299 297 300 301 298 298 298 300 302 303 302 301 300 299 296 294 293 291 294 292 292 291 291 291 291 288
303 303 304 304 304 303 300 299 300 299 299 297 297 298 297 298 299 297 296 296 295 294 293 292 292 293 292 291 291 288 288 287
302 302 303 305 303 302 302 301 301 299 299 298 299 297 295 294 294 294 294 294 295 295 295 294 294 293 291 291 291 291 291 290
303 304 304 304 303 302 302 301 301 301 300 299 296 296 295 295 294 294 295 296 296 296 295 294 294 292 291 290 290 291 291 291

GFSFLT2_sfc_thetae_015.txt.gz
Theta_e
331 333 335 335 334 335 335 336 337 338 338 338 337 336 336 337 337 337 337 337 336 334 331 332 332 332 333 332 331 332 328 327
328 329 330 327 326 332 332 334 335 335 336 335 333 333 333 334 334 334 334 332 332 333 333 332 331 330 330 329 329 329 323 322
328 328 328 326 324 327 332 333 333 334 334 333 329 326 325 326 331 331 329 327 326 325 325 323 322 320 322 325 327 322 320 320
327 327 327 325 327 324 326 328 328 328 328 328 326 323 322 324 326 328 327 326 325 323 323 321 317 313 314 317 316 317 317 318
319 321 322 323 324 323 324 325 324 325 325 324 324 324 322 320 320 320 317 321 316 316 314 312 311 310 311 311 313 314 314 317
319 321 320 317 323 323 324 323 323 322 322 322 320 318 318 318 317 317 315 314 312 312 312 312 311 311 311 312 313 313 314 315
316 319 319 317 319 316 318 318 321 319 318 317 319 317 315 315 315 313 312 313 312 311 312 312 311 311 312 313 314 314 315 315
315 317 318 316 313 313 312 312 312 313 313 314 317 317 315 315 313 312 311 312 310 308 307 306 305 307 307 308 311 313 313 313
314 314 315 315 313 313 310 309 309 309 311 312 313 313 312 313 312 311 310 309 308 306 303 299 299 300 299 300 305 307 303 303
311 315 312 311 312 311 310 308 307 307 309 309 309 312 309 308 307 307 306 307 305 298 297 296 296 296 296 297 297 298 298 300
308 309 310 310 310 309 307 307 305 305 307 307 308 309 309 306 305 304 302 302 301 298 297 296 295 295 296 296 295 295 296 299
305 305 308 307 304 302 301 301 302 302 304 307 308 307 307 303 304 304 301 300 299 297 297 297 296 296 298 297 295 295 295 295
302 300 303 301 299 299 298 300 300 300 301 305 307 307 306 303 302 303 301 299 299 298 297 296 296 295 293 293 294 295 294 295
301 300 300 300 299 299 299 298 299 300 301 302 305 306 306 304 301 302 302 299 298 298 297 295 295 295 293 291 289 291 292 295
300 300 300 300 300 299 298 298 298 297 298 299 302 306 306 304 302 301 301 301 299 297 297 296 294 294 295 293 287 286 289 292
300 301 301 301 300 299 297 297 298 300 301 300 300 302 304 305 304 301 300 300 297 296 297 295 294 292 293 297 293 292 285 283
300 302 303 303 303 301 299 298 300 301 300 297 298 299 301 303 303 303 301 300 298 296 293 291 292 290 291 289 289 289 289 286
300 301 302 303 302 302 300 299 300 299 299 298 299 297 297 299 300 299 297 295 292 292 294 293 293 293 293 292 291 288 286 285
300 301 301 302 302 302 302 301 300 299 299 299 298 295 292 292 294 294 293 295 295 296 295 295 295 293 293 292 292 291 291 289
300 301 301 302 302 302 301 300 298 299 298 298 296 293 291 292 293 295 296 296 296 295 295 294 295 294 292 292 291 290 290 290

GFSFLT2_sfc_thetae_018.txt.gz
Theta_e
328 329 332 334 333 334 334 336 336 337 337 336 336 336 336 337 336 337 336 336 336 334 332 333 333 332 331 330 329 330 324 324
325 326 327 325 324 332 332 333 334 335 335 334 332 332 333 334 332 333 331 331 330 330 328 326 325 324 325 328 327 325 320 320
325 326 326 324 322 326 331 333 333 334 334 332 328 324 324 324 330 330 329 327 326 325 324 323 321 319 321 321 321 318 317 318
325 325 325 324 326 323 324 326 326 326 327 326 324 322 321 323 326 328 327 326 325 323 322 320 315 311 312 315 313 315 315 316
324 325 324 324 324 321 322 323 323 324 323 324 323 322 321 319 318 319 317 321 314 314 312 312 310 309 310 311 313 314 313 315
320 319 320 319 321 322 321 322 322 321 322 321 320 319 318 317 316 316 315 314 311 311 311 312 311 311 311 312 312 313 314 315
315 318 318 316 320 319 320 320 321 320 319 319 319 317 316 316 315 313 313 312 311 311 311 310 310 309 310 311 312 313 313 312
314 316 317 315 315 315 316 316 317 316 315 315 316 317 315 314 313 312 311 312 310 308 306 304 303 305 303 303 304 311 305 304
312 315 315 313 313 312 311 310 311 310 312 312 313 315 313 313 312 310 311 310 308 306 304 299 298 299 298 300 302 303 301 301
312 316 314 313 312 311 310 308 307 307 308 309 310 312 311 310 310 309 310 308 307 301 298 296 296 296 296 297 297 298 299 300
310 310 311 310 310 309 308 307 306 305 305 307 308 308 310 307 306 307 306 304 304 299 297 296 295 295 295 296 295 296 297 299
307 307 309 308 306 304 302 301 301 302 302 305 307 307 307 306 305 304 303 301 300 297 296 296 296 296 297 297 295 296 296 295
305 303 304 304 300 299 298 300 300 300 301 302 305 306 306 305 303 303 303 300 300 298 296 295 295 295 294 293 294 295 295 295
302 301 300 302 300 298 298 297 298 299 300 301 302 304 306 306 304 302 302 301 298 297 296 295 295 295 293 291 289 292 293 294
301 300 300 299 299 298 298 297 298 297 298 298 300 302 304 304 305 303 301 302 301 299 297 296 295 294 294 293 288 287 289 292
298 300 301 301 300 298 297 295 296 298 298 298 300 300 301 303 304 303 301 301 301 299 297 296 294 292 293 296 293 292 285 284
299 301 301 301 301 300 299 298 298 300 299 299 299 299 298 300 301 303 301 299 300 298 296 295 294 293 290 289 289 290 290 286
299 300 301 301 301 301 300 297 298 298 298 298 299 298 296 296 297 297 296 293 292 293 294 294 293 294 293 292 291 289 287 287
300 300 300 302 303 302 299 298 296 295 296 297 297 296 291 290 292 293 294 294 294 294 294 294 295 294 294 293 294 292 292 289
299 301 301 301 300 299 298 297 296 296 296 296 294 292 290 292 293 294 294 294 294 295 296 295 296 295 293 292 290 291 292 291

GFSFLT2_sfc_thetae_024.txt.gz
Theta_e
336 338 336 336 336 336 336 337 337 337 337 336 336 336 337 337 337 336 336 336 335 334 332 331 330 329 330 329 328 327 335 336
337 338 338 339 338 334 335 336 336 336 335 334 334 334 334 334 334 333 333 332 332 330 328 327 325 325 325 325 324 327 334 333
339 338 340 340 338 335 333 335 336 335 335 332 331 340 338 335 331 330 329 328 327 326 324 323 321 322 321 320 321 329 330 331
340 342 341 342 336 339 340 338 341 341 340 340 341 341 339 334 332 328 328 326 325 324 321 319 320 326 326 321 326 327 327 327
339 342 344 341 338 338 336 337 340 342 342 341 341 339 341 338 337 335 336 328 330 327 326 325 324 326 325 326 325 325 325 325
340 342 342 341 335 335 337 335 338 337 341 341 340 336 337 336 334 333 333 331 331 328 327 328 326 325 324 324 324 323 323 324
339 342 339 334 335 337 338 337 336 337 338 339 339 334 333 333 332 331 329 329 327 327 326 326 324 322 320 319 318 320 321 318
339 338 334 333 332 336 336 338 336 336 335 334 337 336 333 330 327 326 325 326 325 325 325 324 320 318 316 315 314 317 316 314
337 336 333 332 331 332 332 333 333 331 330 332 333 333 330 329 325 324 323 324 327 327 325 323 320 317 314 313 313 316 314 313
334 331 330 331 330 330 330 329 328 326 326 327 328 328 329 327 323 323 324 324 324 323 322 320 319 316 314 312 312 313 314 313
332 333 331 329 328 328 328 327 326 325 326 324 324 325 325 325 323 323 324 323 322 322 320 320 317 315 313 313 313 312 312 311
329 330 328 327 328 327 325 324 324 324 322 320 321 320 321 322 321 321 322 321 320 320 320 320 318 315 311 310 312 313 313 312
323 323 324 324 324 321 320 318 318 318 318 318 319 319 319 319 318 319 320 319 320 320 319 318 317 317 313 311 311 313 313 312
318 316 316 316 318 317 316 315 316 317 318 319 319 318 317 316 317 316 317 317 318 318 318 316 316 316 311 309 305 308 311 311
315 316 316 316 317 317 318 318 317 315 315 314 315 314 314 314 315 315 315 315 314 316 316 315 312 315 315 309 304 302 307 311
316 315 315 315 316 315 314 312 310 312 312 313 312 313 312 312 312 313 314 313 313 313 313 314 313 310 313 314 312 310 304 302
316 316 315 315 315 314 313 311 312 312 311 311 311 311 310 310 311 311 311 311 311 312 312 312 311 310 309 309 308 307 308 302
315 314 313 313 313 312 310 309 309 309 308 306 306 307 307 308 309 309 309 309 308 308 308 307 307 306 304 303 301 298 298 299
313 313 311 311 311 310 310 309 308 307 306 305 304 304 305 306 307 307 307 307 306 304 302 301 299 297 296 295 293 292 292 290
313 312 310 310 309 309 310 309 308 307 306 305 304 304 304 306 306 305 304 304 302 301 302 297 294 293 292 291 291 291 292 291

GFSFLT2_sfc_thetae_027.txt.gz
Theta_e
334 336 336 337 337 337 338 338 338 337 336 336 336 337 337 337 337 336 336 335 334 333 332 331 330 329 329 329 328 330 332 331
334 336 337 339 338 335 336 337 337 336 334 334 335 335 335 335 335 334 333 333 331 330 328 327 326 325 325 325 327 329 332 329
336 335 337 336 335 335 334 336 337 335 335 333 333 338 337 336 332 331 329 328 327 326 325 324 324 325 325 324 325 326 326 326
336 338 338 338 332 335 336 334 337 337 337 337 336 337 336 331 333 330 329 329 328 327 325 324 323 325 325 324 325 325 324 324
333 339 339 337 334 333 333 334 335 336 338 337 337 335 336 334 334 335 336 330 331 328 327 326 325 325 323 324 324 324 322 322
333 338 338 336 333 331 331 331 334 333 336 337 335 332 333 333 330 330 330 329 329 329 327 327 328 326 325 323 323 322 320 321
333 339 340 333 332 332 333 333 333 335 335 335 334 331 331 330 330 328 327 327 326 325 325 324 325 324 322 320 319 319 320 320
332 338 340 332 330 332 332 334 333 333 333 332 332 332 330 328 327 325 324 324 324 324 322 322 322 321 320 319 317 315 316 319
332 337 339 333 330 330 329 330 329 329 329 329 329 329 328 327 325 324 323 324 328 324 324 323 322 321 319 317 315 316 315 316
331 333 335 335 329 330 329 328 327 326 326 327 326 327 327 327 324 323 324 325 323 322 321 320 320 319 318 317 316 315 315 316
330 333 335 334 330 328 329 327 326 325 326 324 324 325 325 324 323 323 325 322 323 323 322 323 319 319 317 318 317 314 315 313
330 331 332 331 330 329 325 324 324 324 322 321 321 321 322 322 321 322 323 321 322 322 324 321 321 320 317 316 319 317 317 316
327 328 328 326 326 322 321 319 320 319 319 321 321 321 320 320 319 319 321 319 321 323 322 321 320 322 318 318 318 319 318 315
321 321 320 319 319 319 319 319 319 319 321 320 319 319 318 316 316 315 315 315 318 319 320 317 319 321 315 314 309 313 316 316
318 318 318 318 319 319 318 318 318 316 317 317 317 317 315 315 314 313 314 315 314 316 316 315 313 316 318 313 307 305 310 315
318 318 317 317 319 317 317 315 314 316 316 315 315 316 313 312 311 312 312 312 313 313 312 315 314 310 313 312 312 311 305 305
318 317 316 317 317 317 316 314 313 313 313 312 311 311 310 309 310 310 311 310 312 311 311 310 309 308 308 307 306 305 307 300
318 316 315 315 316 315 313 312 310 309 309 308 308 308 308 308 308 308 309 309 309 308 308 306 305 304 304 302 298 296 297 293
316 315 314 315 314 313 312 311 310 309 308 307 306 305 304 305 306 307 307 307 305 304 303 302 301 298 297 295 294 292 292 291
316 314 312 312 313 312 312 311 310 309 309 307 305 304 303 305 306 305 304 302 301 301 300 299 298 295 294 294 295 295 295 293

GFSFLT2_sfc_thetae_030.txt.gz
Theta_e
331 333 336 337 337 337 337 337 337 337 337 337 338 338 338 337 337 336 335 335 334 333 332 330 329 329 330 330 330 331 327 328
332 332 334 334 334 335 336 336 335 335 335 335 335 335 336 336 335 334 333 332 331 330 328 328 327 327 327 327 326 326 323 326
334 334 337 338 335 335 335 336 335 334 334 333 332 335 334 335 332 332 331 329 328 327 326 326 326 327 328 327 326 321 320 320
335 336 337 336 329 333 335 335 335 335 335 334 335 333 333 331 332 331 331 330 330 329 329 328 326 321 322 326 321 321 319 318
333 339 338 336 334 332 333 334 335 336 335 334 335 333 334 333 330 329 329 331 329 328 326 324 324 322 321 320 320 319 317 317
333 337 337 334 331 331 332 330 334 332 335 335 334 331 331 329 328 327 327 327 326 323 323 324 322 324 322 321 319 318 316 316
332 337 337 334 330 332 333 331 333 333 332 334 332 329 329 328 326 325 324 323 321 321 319 320 320 321 321 319 317 316 316 315
334 336 339 332 329 331 331 333 332 332 330 330 329 329 328 326 324 323 321 321 320 319 318 319 318 319 317 317 315 314 312 311
332 336 339 333 330 330 328 328 326 326 327 327 326 326 326 324 323 322 321 322 321 321 320 319 318 318 316 316 315 314 312 311
331 332 337 335 332 329 327 326 326 325 324 324 324 324 324 323 322 321 322 322 320 319 318 317 316 315 314 314 313 312 311 311
329 331 333 334 333 328 328 326 324 325 324 323 324 322 323 321 319 320 322 319 319 318 316 316 314 314 315 314 314 312 311 312
329 330 333 333 330 327 325 323 323 324 322 320 321 319 321 319 318 318 319 317 316 316 316 316 315 315 316 315 314 315 313 310
326 324 326 325 325 321 319 318 318 318 319 320 319 319 318 316 315 315 314 313 313 313 312 311 312 314 313 312 312 313 313 313
320 319 319 318 318 318 317 317 318 318 319 317 318 318 316 314 313 312 312 310 310 310 310 309 309 310 308 308 304 306 309 312
317 317 318 318 318 317 317 317 317 315 316 316 315 316 315 314 311 310 310 309 307 307 307 306 305 307 307 305 301 299 303 307
318 318 317 317 318 316 316 314 311 312 312 313 312 312 311 309 309 308 307 308 306 306 307 306 304 302 304 307 304 302 298 298
318 317 316 317 316 315 313 311 310 310 309 309 308 309 309 308 306 305 305 305 305 305 304 302 302 300 299 298 297 297 299 297
318 316 315 316 314 314 312 310 309 307 307 306 306 306 305 304 305 304 305 304 302 302 301 301 300 298 296 296 295 293 292 291
316 315 313 313 313 313 312 310 309 307 307 306 305 303 302 301 303 302 301 300 300 300 300 298 298 296 295 294 294 293 292 291
313 313 311 310 310 311 311 311 309 307 307 305 303 301 300 301 301 299 298 299 298 298 297 297 297 296 294 294 294 294 294 293

GFSFLT2_sfc_thetae_033.txt.gz
Theta_e
329 332 335 336 335 335 335 336 336 336 336 337 337 337 337 338 337 336 335 334 334 332 330 330 329 329 329 328 327 328 323 321
326 328 330 330 331 334 334 333 333 333 334 334 334 334 335 335 335 335 334 334 332 331 329 329 328 328 328 328 327 327 317 319
327 326 328 328 328 333 333 334 333 332 332 332 331 330 333 333 332 333 333 332 330 329 328 327 326 326 326 327 327 320 316 317
327 327 329 329 331 330 329 332 331 330 330 329 329 329 330 331 329 331 331 331 330 330 329 328 327 320 318 325 321 318 317 315
329 327 327 326 327 327 329 329 329 330 330 327 329 326 327 326 325 325 324 328 325 327 325 324 321 319 318 318 318 316 313 314
328 328 326 323 322 323 324 325 326 327 330 327 324 323 322 321 324 324 323 324 323 323 321 321 319 319 319 318 317 315 313 313
327 326 326 323 321 322 322 323 325 325 326 326 323 321 320 320 319 319 317 316 316 315 315 316 315 316 317 317 316 314 313 311
327 327 326 322 322 321 321 322 324 322 324 323 324 322 319 319 317 317 316 316 315 314 313 313 314 315 315 315 314 312 311 310
327 329 324 320 321 321 320 324 318 319 321 320 321 320 318 317 316 316 316 317 315 315 314 314 314 315 314 314 314 313 311 309
328 334 327 324 321 320 319 319 317 316 316 319 319 319 318 316 315 314 316 316 315 314 314 313 312 312 311 312 312 311 310 310
325 329 328 330 325 322 318 317 316 315 317 316 316 317 317 314 313 313 314 314 314 313 313 311 311 311 312 312 310 310 310 312
321 322 322 323 322 320 319 315 315 315 313 313 314 314 315 312 312 311 312 310 309 309 308 308 309 309 312 313 312 311 311 310
314 313 314 314 312 310 309 309 310 311 312 313 313 313 313 311 310 309 308 307 306 306 306 305 305 307 306 307 306 308 308 309
312 311 311 311 310 309 310 309 310 310 312 313 313 311 311 310 307 306 305 305 305 304 303 301 302 303 301 302 298 302 303 306
310 310 310 311 311 311 311 310 309 308 307 308 307 307 307 305 304 304 303 303 302 301 301 301 299 301 301 299 296 294 298 302
309 310 309 311 310 309 307 305 304 305 305 305 304 306 305 304 302 302 302 302 301 301 302 299 299 295 298 299 297 297 293 292
309 309 309 310 309 308 306 305 305 305 304 304 304 304 303 302 302 301 301 301 299 298 298 298 300 298 296 295 295 292 291 288
308 308 308 308 307 307 305 304 304 303 303 302 301 301 300 300 301 300 299 298 298 297 296 298 295 295 295 293 292 290 290 289
307 307 306 306 306 306 305 304 303 301 301 299 298 298 297 298 298 297 296 296 296 296 296 294 294 293 293 292 292 290 292 291
305 305 305 305 306 304 303 303 302 302 301 300 298 297 296 297 296 296 295 295 295 294 293 294 292 292 291 294 294 294 294 291

GFSFLT2_sfc_thetae_036.txt.gz
Theta_e
329 332 334 335 335 335 335 336 336 337 337 337 337 336 337 337 337 335 335 334 333 331 330 330 329 329 329 328 327 327 318 316
326 328 329 329 329 333 333 333 333 334 334 334 334 334 334 335 335 336 334 333 332 331 330 329 328 327 327 326 326 326 316 314
324 326 327 327 328 331 333 333 333 332 332 332 330 330 331 332 331 333 334 332 331 330 329 327 326 326 326 325 327 319 316 315
323 324 325 326 330 329 328 330 329 328 328 328 328 326 327 331 330 331 332 330 330 330 330 329 327 320 317 322 318 317 316 313
324 326 326 325 326 326 325 327 327 327 327 326 326 328 326 328 323 325 322 327 323 325 324 322 321 319 317 316 317 316 313 313
326 325 326 323 324 325 326 326 326 327 327 326 323 322 320 322 322 321 321 321 321 321 320 321 319 319 318 317 317 315 313 312
325 324 322 319 320 320 322 323 325 327 326 325 321 320 318 318 317 316 315 314 314 313 314 313 312 313 314 314 315 315 313 312
324 323 322 319 320 320 319 322 322 321 324 323 321 320 317 317 315 315 314 314 314 313 312 312 312 313 313 314 314 313 312 311
324 322 320 320 320 320 319 322 319 321 321 320 321 319 318 315 314 314 314 315 314 313 312 312 312 313 311 312 313 313 312 311
324 326 322 323 322 319 317 318 315 316 318 317 318 318 316 314 313 312 312 312 312 311 310 310 309 309 309 310 310 311 311 310
325 325 323 324 324 321 317 315 313 314 314 315 316 316 316 312 311 310 311 309 308 308 306 307 306 305 307 307 308 309 309 312
318 319 322 323 321 318 313 312 310 312 311 312 314 315 313 310 309 308 307 306 305 304 303 304 303 303 306 305 305 307 307 307
314 314 314 314 312 311 309 308 308 309 311 313 313 311 309 306 305 305 304 304 303 303 302 301 300 302 300 301 301 303 303 303
310 309 309 309 309 308 309 308 308 308 309 307 307 305 305 303 302 302 302 301 301 300 299 299 300 300 297 297 295 298 299 300
308 308 308 308 309 308 307 307 306 304 304 303 304 304 303 301 301 300 300 301 299 299 298 297 296 297 297 296 292 290 292 296
307 307 308 309 308 306 305 303 302 302 301 301 302 302 301 301 301 300 300 300 298 298 299 297 299 297 297 297 295 295 287 287
306 307 307 306 306 305 304 303 303 304 303 302 301 300 300 302 301 299 298 298 297 296 295 295 295 293 292 291 290 290 289 286
305 304 304 305 305 304 303 302 302 301 301 300 299 299 299 299 299 297 296 296 295 295 294 293 292 292 291 290 290 289 289 289
304 304 303 304 304 303 302 301 300 299 299 297 297 296 296 296 296 295 294 294 294 293 292 291 291 290 289 289 290 292 292 291
303 302 303 304 300 298 298 298 298 298 298 297 296 296 296 296 295 294 294 294 294 292 291 291 291 289 288 289 291 293 291 291

GFSFLT2_sfc_thetae_039.txt.gz
Theta_e
328 330 334 336 335 336 336 336 337 337 338 337 337 336 336 336 336 335 334 333 331 330 329 329 329 328 328 327 326 327 314 313
325 326 327 326 328 333 333 333 333 334 334 334 333 333 334 335 334 335 333 332 331 330 330 328 327 327 327 327 326 323 315 313
323 325 325 325 325 329 332 333 332 332 332 332 329 328 328 329 331 333 334 332 331 331 329 328 327 326 325 325 325 316 314 313
322 323 323 324 329 327 326 328 327 327 327 327 326 325 325 330 330 331 332 330 330 330 330 329 327 319 317 320 316 316 315 313
322 323 322 323 324 325 324 325 325 325 324 324 324 326 325 326 323 322 321 325 322 323 322 321 320 318 317 316 316 315 313 312
322 323 323 322 323 324 323 324 325 324 325 325 323 322 321 322 322 320 319 319 318 318 318 318 316 316 316 315 315 314 314 313
323 324 325 324 322 322 322 322 324 325 326 326 321 320 317 318 318 316 314 313 312 311 311 311 311 312 312 312 312 312 312 312
324 323 323 318 319 319 320 322 324 324 324 324 321 319 316 315 314 314 313 313 312 311 310 310 310 311 311 312 312 312 312 311
322 319 317 318 317 317 318 320 320 320 322 321 320 319 316 314 313 312 312 311 310 310 309 308 307 308 307 309 310 310 310 310
321 324 319 322 321 319 317 316 314 314 317 316 317 317 315 313 311 310 310 308 307 306 306 304 304 304 303 304 305 307 308 308
321 324 325 325 323 320 317 312 312 311 312 313 313 313 312 309 308 306 306 306 305 304 303 302 302 300 303 302 301 304 305 308
319 321 324 323 319 316 312 310 310 310 309 310 310 309 310 308 305 306 307 305 302 301 301 300 300 300 303 302 301 301 302 302
317 317 317 314 312 311 308 306 308 308 307 308 307 307 306 305 304 302 302 301 300 300 300 298 298 299 297 298 299 299 298 296
310 310 309 309 308 307 308 306 304 304 305 304 303 302 302 301 300 301 303 302 301 299 298 298 298 297 295 294 291 294 295 296
306 306 306 307 307 306 305 305 304 302 301 300 301 301 301 300 300 300 299 299 298 296 296 295 294 295 295 293 288 286 289 292
305 306 306 307 306 304 303 301 300 300 300 300 300 300 300 301 300 299 298 297 296 295 298 294 294 292 293 295 292 291 285 285
304 305 305 305 304 304 302 301 302 302 302 301 300 299 301 301 299 297 296 296 295 294 293 293 293 291 290 289 288 288 287 286
301 303 302 303 303 303 302 301 301 300 300 299 298 297 297 297 297 295 295 294 293 293 292 291 291 291 290 289 290 288 288 288
301 301 302 302 301 301 300 299 298 297 297 296 295 294 295 295 295 294 293 293 293 292 291 290 290 288 288 288 289 289 291 291
300 301 301 298 297 296 296 297 296 296 296 295 295 295 295 295 294 293 293 293 292 292 290 289 289 288 287 288 289 290 290 292

GFSFLT2_sfc_thetae_042.txt.gz
Theta_e
329 332 337 339 338 338 338 338 338 338 338 337 337 336 336 336 336 335 333 332 331 330 330 329 329 328 328 327 326 325 315 314
323 325 327 326 329 334 334 334 334 334 335 334 333 333 334 333 333 334 332 332 331 331 330 329 329 328 327 326 326 321 314 314
322 323 323 323 324 329 332 333 333 332 332 332 329 327 327 327 331 332 332 331 331 331 331 329 328 325 325 325 322 315 315 314
321 322 322 322 327 326 324 327 326 326 327 326 325 324 324 328 329 331 331 331 330 329 329 328 325 320 318 320 316 316 315 314
321 322 321 322 323 323 322 323 323 323 324 324 323 324 323 324 323 321 320 324 320 321 320 319 319 317 317 315 315 315 314 314
321 321 321 320 321 323 322 323 323 322 323 323 322 321 321 320 321 320 318 318 315 314 313 313 311 312 312 312 313 313 313 314
320 321 321 321 320 321 321 321 323 322 323 324 323 320 319 318 318 316 313 311 311 310 310 311 310 311 311 311 311 312 312 312
320 321 322 320 319 319 319 320 321 323 324 324 322 319 316 315 313 312 311 311 310 309 309 307 306 307 306 308 309 309 309 310
321 319 317 318 316 315 316 319 320 320 322 321 319 318 315 313 311 309 309 308 307 306 305 305 304 305 303 305 306 305 307 307
320 323 320 320 319 317 316 315 314 315 315 315 315 316 313 310 308 306 306 306 305 304 304 303 303 301 301 302 302 303 304 306
321 323 322 320 321 316 315 313 313 313 312 310 310 311 310 307 305 305 305 306 305 305 303 300 299 299 302 301 300 301 302 305
322 323 322 318 317 317 316 313 307 306 307 307 308 308 308 306 305 305 304 302 300 301 300 300 298 299 301 301 300 300 301 298
321 321 320 318 315 311 307 305 305 303 304 305 304 304 303 301 300 300 300 300 299 300 299 297 298 298 296 296 297 298 297 295
314 312 311 310 308 307 304 302 301 301 301 301 301 300 300 300 299 299 299 299 298 297 296 295 296 296 293 292 289 292 293 295
306 307 307 307 306 305 304 303 302 300 299 299 299 300 300 299 299 299 298 297 295 294 294 293 292 294 294 292 287 285 288 291
304 305 305 305 304 303 301 300 299 299 299 299 298 299 299 300 299 298 296 296 294 293 295 293 292 290 292 294 292 291 286 286
304 304 304 304 303 303 301 300 300 300 300 299 298 298 299 298 297 295 294 295 294 293 293 292 292 290 290 290 289 288 287 288
302 304 303 303 302 302 301 300 299 298 298 297 296 295 296 296 296 295 294 294 292 292 291 290 290 290 290 292 290 288 287 288
302 302 302 302 300 299 298 297 297 295 295 295 295 294 294 295 294 293 292 292 292 291 290 289 289 288 287 287 288 288 289 290
301 302 299 296 296 296 296 295 295 295 295 295 294 294 294 294 294 293 292 292 291 290 289 289 288 288 287 287 287 288 291 290

GFSFLT2_sfc_thetae_045.txt.gz
Theta_e
342 343 343 340 339 339 338 339 339 339 339 338 337 336 336 336 336 334 333 332 331 331 330 330 329 328 327 327 326 324 325 323
337 339 340 341 341 336 336 336 335 335 335 334 333 333 334 334 333 333 332 332 332 331 331 330 330 328 327 326 323 324 326 325
331 332 333 334 335 335 334 334 334 333 333 332 330 334 334 333 331 331 332 332 332 332 331 330 328 326 325 325 324 325 326 325
328 329 329 330 329 334 333 333 333 333 334 334 334 335 336 334 333 330 331 329 328 328 327 326 328 327 325 325 325 325 325 325
326 328 329 329 330 330 330 331 332 332 333 333 334 335 336 337 336 334 335 328 330 327 327 326 324 324 324 324 324 324 324 324
326 328 328 328 329 329 330 330 331 331 332 332 334 334 334 335 334 334 332 327 325 324 324 323 323 321 320 319 320 320 319 320
326 327 328 328 329 330 330 330 332 332 333 333 334 333 333 332 331 328 325 325 324 323 321 319 318 317 316 315 315 315 314 315
326 327 329 329 328 328 329 331 331 333 333 333 332 330 329 327 325 323 321 320 319 317 317 316 315 314 313 313 313 312 312 313
326 326 327 325 324 323 323 322 322 323 325 326 326 328 326 323 321 318 317 316 317 316 314 314 312 310 309 311 311 311 311 312
326 326 324 324 322 321 316 317 318 320 321 322 322 322 320 318 315 312 314 313 312 310 310 307 308 308 308 309 309 309 309 311
326 327 326 323 320 318 316 315 316 317 317 315 316 315 315 313 310 312 311 310 310 309 308 307 306 306 305 306 308 306 308 309
325 326 324 319 317 316 315 315 312 312 313 312 314 313 313 312 310 310 310 309 308 307 306 305 305 305 301 303 304 305 309 308
325 321 319 318 317 316 312 312 312 311 312 312 311 310 310 310 309 309 308 307 306 306 304 303 302 304 301 300 301 307 307 305
323 323 319 318 317 316 314 312 311 311 309 309 308 309 309 308 309 307 307 306 305 304 303 301 301 303 298 298 295 298 303 303
319 318 319 318 317 314 312 311 310 309 309 308 307 308 308 308 307 307 306 306 303 303 302 300 298 301 301 297 293 291 295 299
314 314 313 314 314 313 311 311 310 309 309 308 307 307 307 307 306 306 305 305 302 301 302 301 300 297 299 301 299 296 290 289
311 312 311 311 312 312 311 309 309 309 310 308 307 307 306 305 305 304 304 303 303 301 300 299 299 297 296 295 294 295 294 290
310 310 309 309 309 310 310 308 306 306 306 306 305 305 305 305 304 304 303 302 301 300 300 299 298 298 297 296 294 292 291 290
309 309 307 307 307 306 306 305 303 302 302 302 302 303 303 304 304 303 302 301 300 300 299 298 298 297 297 296 296 295 295 293
308 307 304 303 303 303 303 303 303 303 303 303 303 303 303 305 303 302 301 301 300 300 299 299 299 298 297 297 296 296 295 292

GFSFLT2_sfc_thetae_048.txt.gz
Theta_e
345 346 345 342 340 340 340 340 340 340 339 339 337 337 337 336 335 334 332 332 331 330 330 330 330 328 327 327 325 326 326 324
341 342 341 342 343 338 338 338 337 336 336 334 334 334 334 334 334 333 332 332 331 331 331 331 329 327 327 326 324 327 326 325
338 336 338 338 337 338 336 335 335 334 334 333 331 336 336 334 331 332 331 331 331 330 329 327 328 327 325 326 326 326 326 325
332 333 333 333 329 334 335 333 332 335 336 336 337 339 339 336 334 330 330 328 328 327 326 327 328 328 328 327 326 327 326 325
329 332 333 332 331 332 331 331 333 337 338 340 340 340 342 341 341 338 339 330 332 330 330 330 328 328 327 327 325 325 324 323
329 331 332 333 331 331 332 333 336 336 339 340 342 341 342 338 337 338 337 333 331 331 331 330 329 326 324 323 323 322 321 320
330 332 331 332 334 334 336 338 338 339 341 341 341 341 339 337 335 334 332 331 330 329 329 325 324 322 321 320 319 319 318 318
331 333 334 334 334 336 336 337 336 338 338 339 338 339 333 331 329 330 331 327 326 324 322 321 321 320 319 318 318 318 317 317
331 333 335 335 333 331 329 328 329 330 332 333 335 335 332 330 330 327 322 323 322 322 320 319 317 316 315 315 316 317 315 315
331 332 333 331 331 330 327 326 323 325 327 328 327 327 326 323 322 318 319 318 318 317 316 314 314 313 313 313 313 313 313 312
331 332 330 327 322 321 321 322 323 321 321 320 319 318 319 317 317 317 317 317 316 314 314 312 310 310 309 307 307 309 307 307
332 331 326 322 323 322 321 318 316 317 317 318 319 318 318 318 317 316 316 315 313 312 310 309 308 307 305 303 307 307 307 309
331 329 327 326 323 319 317 316 316 317 317 317 317 316 316 317 316 316 315 312 311 309 307 306 304 306 303 303 304 306 309 308
330 329 329 330 328 324 321 319 318 317 317 316 316 315 315 315 315 314 312 309 308 307 306 303 303 304 301 301 297 300 303 307
329 329 329 327 323 321 320 318 317 315 316 315 314 314 314 314 313 311 309 308 305 305 304 303 300 302 303 300 295 294 297 301
324 325 324 322 322 319 316 316 314 316 318 316 316 315 314 312 310 309 308 307 305 304 303 303 302 298 300 300 301 298 293 291
320 319 318 318 318 318 317 315 315 316 317 313 313 313 311 309 308 308 307 306 305 305 304 303 301 299 298 298 298 297 297 291
318 317 316 317 317 317 316 314 310 310 309 307 307 307 307 307 307 307 307 306 305 304 304 303 301 301 299 298 295 292 291 291
317 316 314 315 315 313 311 309 307 306 306 306 304 304 304 305 306 307 306 306 305 304 303 302 301 299 299 297 297 296 295 293
315 314 312 311 310 308 308 307 309 307 306 306 305 304 305 306 306 306 306 305 305 304 302 301 301 300 299 297 296 296 295 294

GFSFLT2_sfc_thetae_051.txt.gz
Theta_e
344 344 344 342 341 340 340 341 341 340 340 339 337 337 337 336 335 333 332 331 331 330 330 331 330 329 328 328 327 329 328 324
342 343 342 343 343 339 338 338 337 337 336 335 334 334 334 335 335 334 332 331 331 331 331 330 328 326 326 326 328 328 326 325
338 336 337 338 338 339 336 336 335 334 333 334 331 334 335 333 332 333 331 330 330 330 329 329 329 329 327 326 328 325 325 325
334 336 335 333 329 334 334 331 330 333 334 335 336 337 338 335 334 332 332 330 331 330 329 330 329 328 327 329 325 326 325 324
331 332 333 331 331 331 330 330 334 337 339 338 339 337 338 337 336 336 337 332 331 329 329 328 329 328 326 326 325 325 323 323
328 330 332 332 329 328 329 330 334 335 337 340 340 338 340 337 335 335 337 332 330 329 328 330 329 327 325 324 324 322 322 321
330 331 332 334 334 335 336 335 337 339 338 339 342 341 337 338 338 333 331 330 329 328 328 326 325 325 323 322 321 322 322 320
332 332 333 335 336 337 337 335 335 335 337 338 338 337 336 335 333 331 330 327 326 325 323 322 321 323 320 320 319 320 320 320
332 333 336 335 333 332 331 330 329 328 330 333 334 334 333 331 329 326 324 323 323 321 320 320 318 318 318 318 317 317 316 316
334 333 335 333 330 328 327 327 327 325 325 326 328 328 327 326 322 320 320 318 317 318 317 316 315 314 313 313 312 311 311 313
333 334 330 330 326 324 323 322 323 323 323 321 321 321 321 320 319 319 319 317 317 315 314 312 310 309 308 308 309 307 310 308
334 331 327 327 328 323 324 321 320 320 320 319 319 319 319 318 318 318 317 315 314 313 311 310 307 306 305 305 308 307 308 308
332 328 330 331 329 326 324 322 320 319 318 319 319 318 318 318 317 316 316 312 312 311 308 306 305 306 303 303 304 307 309 308
329 329 329 330 328 327 325 322 319 319 319 319 318 318 317 316 316 314 313 310 309 308 307 304 303 304 300 299 296 299 302 305
330 330 330 328 326 323 322 320 319 317 317 317 317 317 316 315 314 312 310 308 306 306 306 303 300 301 303 298 293 292 296 300
326 326 326 324 323 320 319 315 313 317 317 317 317 316 314 312 311 309 309 308 307 306 305 304 302 298 300 300 301 299 293 291
325 324 322 322 320 320 318 317 318 318 316 314 314 313 312 310 309 308 308 307 307 306 305 304 302 300 298 298 298 298 297 293
321 319 319 320 319 319 318 316 314 313 312 309 309 308 308 308 307 308 308 307 306 305 306 304 302 301 300 299 297 294 293 293
320 318 317 319 319 317 315 313 310 308 308 308 306 305 305 306 307 306 305 305 305 305 305 303 302 300 300 298 298 297 296 294
318 318 316 317 315 313 311 309 310 309 308 307 306 305 306 307 306 305 305 305 306 304 304 303 302 302 300 299 298 297 296 295

GFSFLT2_sfc_thetae_054.txt.gz
Theta_e
342 342 343 341 340 340 340 341 340 339 339 338 337 337 336 336 335 335 334 334 333 332 332 332 331 330 329 327 328 329 323 320
340 341 341 340 339 338 338 337 336 336 335 334 334 334 334 335 334 334 334 333 332 331 332 331 331 329 328 327 327 329 321 319
339 339 340 338 338 338 336 336 335 333 333 333 330 330 330 332 332 333 333 333 332 332 331 331 330 330 330 330 329 321 320 320
335 335 336 336 332 335 333 331 330 330 330 331 332 335 333 333 331 332 333 333 333 332 332 330 329 324 325 327 322 322 320 319
331 334 333 331 329 332 329 329 332 334 336 337 337 335 336 333 334 332 332 332 331 329 327 326 327 325 323 322 321 319 318 317
329 331 332 331 330 330 329 330 335 335 336 336 335 334 334 332 331 332 331 329 327 327 326 327 324 324 323 321 319 319 317 317
328 330 332 331 332 335 334 336 335 335 336 337 336 334 331 331 332 331 329 327 324 322 321 321 319 319 319 319 317 316 317 316
328 330 334 335 334 335 332 330 328 328 331 332 334 333 332 331 330 328 324 323 322 319 320 317 316 317 316 317 317 316 315 314
328 330 334 333 330 330 327 326 325 324 327 329 329 329 329 326 322 320 319 319 316 315 315 315 313 313 310 310 310 309 307 308
329 331 332 330 328 326 325 324 323 324 323 325 325 324 323 322 319 316 316 315 314 313 312 309 308 307 305 305 306 305 305 305
331 331 328 327 324 324 322 323 324 322 322 320 320 319 320 317 317 316 316 314 314 311 308 307 304 303 302 301 303 303 304 305
331 328 325 324 325 324 324 324 322 321 319 319 319 318 318 317 316 314 314 312 310 309 306 305 303 302 302 301 301 302 302 302
329 325 325 326 324 323 321 320 320 318 318 318 318 317 317 316 315 314 312 309 307 306 303 301 300 301 298 297 297 299 298 299
328 327 326 327 328 327 324 321 318 317 317 317 317 316 315 314 313 311 310 307 305 304 302 300 299 300 295 295 291 293 296 298
328 328 328 329 327 323 323 321 318 315 315 315 315 315 314 312 311 309 307 305 303 302 301 300 296 297 298 293 290 288 292 295
329 329 328 327 323 320 318 314 312 314 315 315 315 315 312 311 308 306 305 305 303 302 302 299 298 295 296 299 295 293 289 288
327 325 323 322 321 320 318 316 316 316 315 313 312 312 312 310 307 306 304 305 304 303 303 301 298 296 295 294 293 293 292 289
325 321 319 320 319 319 318 316 312 310 309 307 308 307 306 306 306 305 305 304 303 303 300 300 298 297 296 295 293 291 290 289
320 318 316 318 318 318 316 312 309 308 308 306 305 304 304 304 304 303 302 302 302 302 301 299 298 296 295 295 295 294 294 292
318 316 316 317 317 313 312 309 309 308 306 305 304 304 304 304 303 302 301 301 300 300 300 299 298 296 296 295 295 295 293 292

GFSFLT2_sfc_thetae_057.txt.gz
Theta_e
340 339 340 339 338 339 338 338 338 338 337 337 336 335 335 336 335 335 334 334 333 332 331 331 330 329 328 328 327 328 317 316
336 339 338 337 337 337 336 335 334 334 334 334 333 333 333 334 333 334 334 333 333 332 332 330 330 330 329 329 328 326 315 318
336 338 336 336 336 336 335 335 333 332 332 332 329 329 329 331 331 332 334 333 332 331 331 330 328 328 329 329 327 318 317 319
334 336 335 334 335 331 330 331 328 327 327 328 326 327 327 330 330 331 333 332 332 331 331 330 327 322 322 324 318 317 316 317
332 334 333 327 329 329 326 325 325 326 325 326 329 331 329 331 328 329 329 331 328 329 327 325 324 320 319 317 317 316 314 314
325 326 324 323 327 325 323 324 328 331 332 331 329 328 327 326 326 328 328 326 321 320 319 318 317 317 317 315 316 314 313 314
323 323 322 322 327 328 330 329 331 330 330 333 330 328 326 327 325 321 319 320 317 315 315 313 313 314 313 313 313 313 313 312
322 324 323 330 328 324 323 322 324 326 326 328 329 327 324 323 320 318 317 316 312 312 310 311 310 309 308 308 307 307 304 304
323 324 329 328 324 323 322 320 320 322 324 325 324 323 320 317 315 313 312 311 310 310 307 306 305 306 304 304 304 303 303 303
326 330 326 324 322 321 321 320 319 319 320 319 319 318 317 314 311 310 311 310 310 307 305 303 302 301 299 299 300 301 301 302
325 324 322 322 320 319 319 319 318 316 316 315 315 315 315 312 311 310 311 309 307 306 303 301 299 298 299 297 297 298 299 301
325 322 320 319 319 318 318 317 316 316 313 314 314 314 314 312 310 309 308 306 304 303 300 300 298 297 300 297 295 296 296 296
322 320 320 320 318 317 316 314 314 313 313 314 313 312 312 310 309 307 305 303 302 301 299 298 296 296 293 293 294 294 295 294
322 320 322 321 320 319 316 314 312 311 311 311 312 311 311 310 307 304 303 301 300 299 298 296 295 296 292 291 288 291 293 295
322 322 322 322 323 323 316 313 311 309 308 308 310 311 309 307 305 303 301 300 298 297 297 296 293 294 295 291 288 285 288 292
325 324 323 324 324 316 313 308 307 307 308 309 309 310 308 307 304 302 302 301 299 298 299 296 295 293 293 296 292 290 286 285
322 323 323 321 317 314 310 308 309 311 313 311 310 310 309 306 304 301 301 301 299 299 299 296 295 293 292 291 291 290 290 286
322 318 315 313 313 311 310 308 305 303 303 304 304 303 302 302 302 300 299 298 297 297 297 296 296 295 294 293 292 291 290 288
312 312 311 312 312 309 305 303 302 302 302 302 302 300 301 300 300 298 297 297 297 297 296 296 296 294 293 292 293 294 293 293
310 311 311 311 308 306 304 304 303 304 303 302 301 300 300 297 295 295 295 295 294 294 293 293 295 293 292 292 292 293 294 294

GFSFLT2_sfc_thetae_060.txt.gz
Theta_e
336 337 337 339 339 338 337 337 337 338 337 336 336 335 335 335 335 335 334 334 333 332 330 330 331 331 331 329 327 325 314 316
334 335 338 337 337 335 335 335 334 334 334 333 332 332 333 334 333 334 334 333 332 330 330 329 329 329 329 328 325 322 316 318
334 335 335 335 334 334 334 334 333 332 332 332 328 327 328 329 330 332 333 332 331 330 330 329 328 327 329 327 323 314 316 316
334 334 334 334 334 330 329 330 328 327 327 326 325 325 326 329 329 330 332 331 331 331 330 328 325 319 318 320 315 314 313 315
333 333 333 330 329 327 325 324 323 324 324 324 325 328 327 327 326 328 327 331 325 322 319 318 316 315 315 313 313 313 311 312
330 331 328 325 327 324 322 322 324 327 329 329 327 326 324 324 325 323 320 319 317 316 314 314 312 312 311 309 309 309 307 307
325 328 321 323 324 324 326 328 328 328 329 329 327 325 324 321 319 318 316 314 312 310 310 309 308 307 306 305 306 304 302 303
322 322 323 327 324 324 323 324 324 326 327 327 326 324 321 318 316 315 313 311 310 307 305 304 303 303 302 302 302 301 300 301
321 323 327 323 322 321 319 322 324 323 323 323 321 319 317 314 312 310 309 309 306 305 303 302 301 301 299 299 300 299 300 300
323 330 324 322 320 319 318 318 318 319 319 318 318 316 313 310 309 308 309 308 305 304 302 299 298 298 296 296 296 297 297 298
324 323 321 319 319 318 317 317 316 316 315 313 314 313 312 309 308 308 308 306 304 304 300 298 296 296 297 295 294 295 295 298
323 322 320 318 318 317 316 315 314 313 312 311 312 313 313 310 308 306 305 303 302 300 297 297 296 295 298 295 294 294 293 294
322 320 319 318 316 315 313 312 312 311 311 312 311 311 310 308 306 304 302 301 300 299 297 295 294 294 292 292 292 292 293 292
320 320 319 319 318 317 316 313 312 311 310 310 310 309 309 306 304 302 301 299 298 297 296 294 294 294 291 289 287 289 292 294
319 320 320 319 318 319 313 310 309 307 307 306 308 309 308 306 304 302 300 299 298 296 296 295 292 293 293 291 287 285 287 290
320 321 320 319 320 318 312 308 306 306 306 307 307 308 306 305 303 301 300 299 298 297 298 295 294 292 292 295 291 290 286 284
320 320 320 321 321 317 313 307 306 307 308 307 307 306 306 304 302 300 299 299 297 296 296 295 294 292 291 291 289 289 288 285
319 319 320 320 317 312 309 307 306 305 304 303 304 303 303 301 300 298 297 296 296 295 294 294 294 293 293 291 290 289 288 286
317 316 311 310 308 307 306 303 302 301 301 302 301 301 301 300 299 295 295 294 294 293 292 292 292 292 292 291 291 291 291 291
313 310 309 307 304 303 302 302 301 302 302 302 302 301 298 298 296 294 293 293 292 292 291 290 291 291 291 290 291 291 292 292

GFSFLT2_sfc_thetae_063.txt.gz
Theta_e
335 336 337 337 338 338 337 338 338 339 338 337 336 335 335 335 335 335 334 333 333 332 331 331 332 332 329 326 325 323 315 320
333 334 335 336 335 335 335 335 335 335 335 333 333 333 333 333 333 334 334 333 333 332 331 330 329 330 327 325 324 323 316 318
332 333 333 334 333 334 334 334 333 332 332 331 327 326 326 326 331 332 333 332 332 332 330 328 325 325 326 323 320 315 315 315
325 330 333 333 333 330 329 329 327 327 326 324 324 324 325 328 329 331 332 331 331 329 326 323 319 314 313 316 312 311 311 312
328 330 332 330 329 326 325 323 323 323 323 323 324 326 327 326 325 326 325 323 317 317 315 313 311 309 308 308 306 306 304 305
328 330 331 328 326 323 321 321 323 323 323 325 326 324 323 322 319 318 317 315 313 311 310 309 307 306 305 304 303 301 301 301
327 329 324 324 322 320 322 325 326 328 328 327 325 322 319 318 316 314 312 311 309 307 305 304 303 303 302 301 300 299 299 300
325 325 320 324 322 324 325 326 326 326 326 325 325 322 318 315 313 312 310 308 306 304 302 301 299 299 299 299 298 298 298 297
322 321 324 323 322 322 322 324 325 324 323 322 320 317 315 312 310 308 307 306 304 302 300 299 298 299 296 296 297 297 297 297
320 327 322 320 319 318 319 321 320 320 320 318 316 315 311 309 308 308 307 304 303 301 299 297 297 296 294 294 294 295 295 296
323 322 319 318 317 316 316 317 316 316 315 314 313 311 310 308 307 306 305 304 303 301 298 297 295 294 295 294 293 292 294 296
323 320 318 316 316 315 314 313 313 312 311 311 311 311 310 307 306 305 304 302 300 298 296 296 295 294 297 294 292 292 292 292
321 318 317 317 315 313 311 310 310 309 309 310 311 311 310 307 304 302 301 300 298 297 296 294 293 293 291 291 291 291 291 291
319 319 317 317 317 315 314 312 311 309 310 309 309 308 307 305 303 301 300 299 297 296 295 294 293 293 291 288 287 289 290 292
319 318 318 318 317 315 311 309 308 307 307 306 307 308 306 305 303 300 298 298 296 295 294 293 292 292 292 291 286 284 286 289
319 319 318 319 318 316 313 308 306 306 305 305 306 307 306 304 301 300 298 298 296 296 296 294 293 291 291 293 290 289 286 284
318 319 319 319 319 317 311 307 305 305 305 305 305 304 303 302 300 298 298 297 296 295 294 293 293 291 290 290 289 288 287 285
318 319 319 318 318 315 311 307 305 304 304 303 301 300 300 300 300 297 297 298 295 293 292 292 291 291 291 290 290 288 287 285
319 319 317 317 316 312 310 306 305 305 303 300 298 298 299 299 299 299 296 293 292 292 291 289 289 289 289 290 290 290 290 289
318 317 311 310 309 308 304 303 302 301 300 299 300 301 298 299 299 296 294 292 291 290 289 289 290 289 288 288 289 290 290 290

GFSFLT2_sfc_thetae_066.txt.gz
Theta_e
335 336 337 337 338 339 339 339 338 338 338 337 336 335 335 335 335 335 334 334 334 334 333 333 331 330 329 326 325 325 319 321
333 334 334 334 335 336 336 336 336 335 335 334 332 333 333 334 333 334 334 334 334 333 330 331 329 327 326 326 324 321 316 318
333 333 331 333 333 334 334 335 334 333 332 331 327 326 325 326 331 333 334 333 332 329 327 324 323 323 323 322 317 313 313 314
327 329 329 332 332 329 328 330 327 327 325 324 323 323 324 326 329 332 332 329 327 324 322 319 313 309 309 310 306 306 305 307
326 328 329 329 328 325 324 323 323 324 322 323 324 325 324 325 324 323 318 319 313 312 309 308 306 306 304 303 302 302 301 302
322 323 327 327 326 323 322 321 322 321 322 324 325 324 322 319 318 316 313 311 309 307 306 304 304 303 302 301 300 300 299 300
319 321 326 325 322 320 320 321 322 324 324 326 324 321 316 316 313 311 309 307 305 303 302 302 301 300 300 299 299 298 298 298
324 326 324 323 320 320 321 324 325 325 325 324 323 319 315 313 311 309 307 305 303 301 300 298 297 298 297 298 297 297 297 297
323 323 321 322 320 322 322 324 324 324 323 323 320 317 314 310 308 306 304 305 303 301 299 298 297 297 295 296 296 296 296 296
321 325 323 321 320 321 321 322 320 320 319 319 318 314 310 309 309 307 307 305 303 301 298 296 295 295 294 293 294 295 296 296
319 322 319 318 317 317 317 317 318 317 317 316 314 310 309 311 308 305 305 304 303 302 299 296 294 294 295 294 293 293 295 296
321 319 316 315 314 314 313 313 313 313 312 310 309 308 308 307 306 304 304 302 298 297 296 295 295 294 296 294 292 292 293 293
318 316 315 316 314 311 310 310 310 310 311 311 311 309 307 306 303 301 301 299 297 296 295 294 294 293 292 292 291 292 292 292
318 317 316 316 316 312 312 310 310 308 310 310 309 309 307 304 302 300 299 297 297 296 295 294 293 293 291 289 288 290 291 292
319 317 317 316 315 314 312 312 308 307 306 306 307 307 306 303 301 299 298 297 296 295 294 294 292 292 292 291 287 285 287 290
319 318 317 316 316 314 313 311 307 307 306 305 305 306 304 303 301 298 298 297 297 296 298 294 293 292 292 293 291 289 287 285
317 317 317 317 317 316 315 313 307 305 304 304 303 302 302 301 299 298 300 297 297 296 294 293 293 291 290 290 289 288 287 286
315 316 318 317 317 317 315 311 305 303 303 302 301 300 299 299 301 300 296 298 297 293 292 291 291 291 291 290 289 288 287 286
317 317 317 318 317 318 316 309 305 304 303 300 298 298 297 298 299 299 297 296 294 291 290 289 289 289 289 289 290 290 290 289
318 318 317 316 316 316 311 308 306 304 302 299 298 299 299 300 301 299 296 294 291 292 290 289 289 289 289 289 289 290 290 290

GFSFLT2_sfc_thetae_069.txt.gz
Theta_e
337 340 339 338 339 339 338 338 338 337 337 337 336 336 335 335 335 335 335 335 335 334 333 332 332 331 329 327 327 327 327 327
334 334 334 335 334 336 336 336 335 334 334 333 333 333 333 334 334 335 335 334 334 332 330 329 328 328 325 324 323 324 325 325
331 329 328 329 331 334 336 335 333 333 332 331 329 330 330 331 332 334 333 332 330 327 324 322 323 321 319 317 318 319 322 322
329 327 329 328 333 333 334 333 331 331 330 330 328 331 331 331 332 332 329 327 324 322 319 318 317 314 313 314 312 313 313 314
325 326 329 330 331 330 329 329 329 329 329 329 331 331 332 333 333 327 322 320 315 316 315 313 313 312 311 311 310 310 310 310
323 326 328 330 329 327 326 326 327 327 329 332 332 331 332 329 325 321 319 317 315 315 313 312 311 310 309 308 308 308 309 309
322 324 327 329 327 325 325 326 327 329 331 334 334 330 324 322 320 319 317 315 313 312 311 309 309 308 308 307 306 307 308 309
320 322 327 328 325 325 325 328 328 329 330 332 331 325 323 321 318 316 314 313 312 311 309 307 306 307 306 306 305 305 306 309
319 323 329 328 325 325 327 328 330 330 331 331 327 324 322 320 317 314 313 312 311 309 308 308 306 305 305 305 305 305 305 306
322 326 329 328 326 326 328 330 330 330 330 329 326 324 321 318 315 314 314 312 309 309 308 306 305 305 305 304 305 305 305 305
326 328 327 327 326 327 329 331 329 328 328 326 321 320 319 318 315 315 314 311 311 308 307 307 305 305 304 305 305 304 305 303
326 327 326 325 325 326 326 327 326 326 325 323 321 317 317 316 315 314 313 310 308 307 307 306 306 306 303 303 304 303 305 305
326 325 324 323 322 323 322 323 322 322 321 319 316 315 315 317 314 312 311 309 308 308 307 306 305 306 304 304 302 302 302 303
325 325 324 324 325 324 323 322 320 321 319 316 314 314 315 314 312 310 310 308 308 308 307 305 306 305 303 301 298 299 300 302
324 325 324 324 324 321 318 318 316 315 315 312 314 314 314 313 311 310 309 309 307 307 306 305 303 304 303 300 295 293 296 302
325 324 323 323 322 321 319 317 313 315 313 312 313 315 313 311 310 310 309 308 307 307 306 305 304 302 303 302 302 300 293 291
324 324 323 322 322 322 320 317 317 316 312 313 313 313 312 310 310 309 308 307 306 306 305 304 305 301 299 300 299 299 299 295
323 323 322 322 322 321 320 317 315 313 312 311 311 311 310 309 308 307 306 305 302 302 302 301 301 301 300 299 297 295 295 295
321 322 320 322 321 321 321 318 316 315 312 312 310 309 307 307 307 304 305 299 298 298 300 300 300 299 299 298 300 299 298 296
321 320 321 322 321 321 321 319 315 315 314 313 311 310 308 306 306 303 300 299 298 298 298 300 300 300 300 300 299 298 297 296

GFSFLT2_sfc_thetae_072.txt.gz
Theta_e
344 342 341 338 338 338 338 338 337 337 338 337 337 336 335 336 336 336 336 336 335 334 334 333 332 330 328 328 326 328 328 327
335 333 333 333 335 336 336 335 335 335 335 334 333 333 334 335 334 335 336 335 332 331 332 330 327 326 324 324 324 326 327 325
329 328 327 330 332 336 335 335 333 332 332 331 328 327 328 330 333 334 334 332 329 327 326 324 322 320 319 320 322 325 325 323
327 326 323 322 326 331 334 330 328 328 329 330 327 330 330 331 331 330 329 327 324 322 322 322 324 323 320 321 321 321 319 318
325 324 324 323 323 325 332 330 330 329 330 329 332 332 332 333 330 328 327 326 321 321 322 322 321 321 319 319 317 316 316 314
326 324 324 324 323 324 329 328 329 328 330 332 333 333 334 335 332 329 325 325 323 322 321 320 318 317 316 314 313 312 312 312
319 323 325 326 328 328 328 327 328 329 331 334 335 335 336 333 330 325 325 323 324 322 320 317 315 313 312 311 310 311 311 312
321 319 323 324 325 329 328 328 328 330 333 337 339 337 333 327 326 326 323 324 322 319 316 313 312 312 311 310 310 309 310 311
322 323 327 329 329 328 327 328 329 332 334 337 333 331 330 330 327 325 322 321 319 316 314 313 311 310 309 309 310 310 309 308
327 324 330 332 329 327 326 329 333 334 336 337 334 332 331 328 325 322 320 318 316 315 313 311 311 311 311 310 311 311 309 308
322 326 331 333 332 328 329 333 335 335 335 336 334 331 329 327 324 321 320 317 316 313 312 314 311 312 310 311 311 310 310 308
325 329 331 334 332 331 332 333 333 333 334 334 331 329 326 325 323 321 319 317 314 312 312 313 313 312 308 308 310 309 308 308
328 330 333 333 330 326 327 328 329 331 331 331 328 320 324 325 322 320 318 316 314 314 314 312 313 314 309 310 309 308 307 307
328 330 332 332 328 327 330 331 328 330 331 326 324 322 323 320 320 318 317 315 314 314 313 313 314 313 307 306 302 304 305 305
327 330 331 332 331 328 330 330 328 327 327 321 319 318 320 320 320 318 317 315 313 313 313 311 310 311 308 304 298 297 299 304
328 329 331 332 333 329 327 325 324 326 324 321 317 318 319 319 318 318 317 314 314 313 313 312 310 307 309 305 304 301 295 294
331 331 332 333 333 331 329 327 327 324 317 315 317 318 320 318 318 317 316 314 314 312 311 310 309 305 303 302 301 301 301 297
330 329 329 330 330 330 329 328 324 319 315 315 317 319 319 318 317 317 315 313 312 311 307 305 305 304 303 301 299 297 297 297
329 329 328 330 329 329 327 326 325 321 317 316 318 316 315 316 316 315 312 312 304 301 302 305 304 303 302 300 301 300 300 298
328 328 327 329 329 327 327 327 326 323 320 319 318 317 317 317 315 313 312 301 301 302 303 305 305 303 302 302 301 301 300 299

GFSFLT2_sfc_thetae_075.txt.gz
Theta_e
340 342 342 340 338 338 338 337 337 338 338 338 337 336 336 337 336 337 337 338 338 336 334 333 332 330 328 327 326 330 327 325
337 336 339 337 336 335 335 335 336 337 336 334 333 334 334 335 335 336 335 335 335 333 331 330 327 326 325 324 325 328 325 323
333 329 329 330 331 335 334 335 335 333 333 331 328 328 327 331 334 334 332 332 331 330 328 326 323 321 320 321 323 323 321 320
327 325 324 327 329 331 332 331 330 329 327 329 325 330 331 330 331 330 329 328 327 328 326 325 325 323 321 322 321 320 317 317
324 325 325 324 328 329 330 328 329 329 331 328 331 332 332 331 329 328 326 327 323 323 322 324 325 324 323 320 316 315 314 313
323 325 323 322 324 320 324 329 329 328 329 334 335 331 333 332 329 329 328 326 326 325 324 324 322 319 317 315 314 313 312 312
322 322 322 321 321 318 320 326 329 330 332 334 333 332 335 334 333 329 328 327 325 325 324 321 317 315 314 312 311 312 312 313
318 320 322 323 324 325 326 329 329 330 332 335 339 339 335 335 330 328 326 327 326 325 321 316 314 314 312 311 311 311 311 312
317 317 318 318 319 319 321 326 329 329 335 339 337 336 334 332 329 328 327 327 325 321 316 315 313 312 311 311 311 311 310 309
319 319 318 319 322 323 324 326 329 333 334 338 336 335 333 332 330 328 326 323 320 317 315 313 313 314 313 313 311 310 310 309
320 322 321 325 328 328 328 332 335 335 336 336 334 334 333 331 329 326 325 321 319 316 315 316 313 313 312 312 313 310 310 308
325 326 327 329 331 330 329 330 333 335 335 335 334 333 332 330 328 325 323 319 317 316 316 315 315 314 312 312 313 312 310 309
324 325 328 331 330 326 325 325 330 332 333 334 334 332 331 330 327 324 322 319 317 317 316 315 314 315 311 312 312 311 310 309
324 326 330 331 329 326 325 327 331 333 334 332 331 326 326 329 326 323 320 317 317 317 316 314 315 314 310 308 305 307 308 308
324 327 330 332 330 325 326 332 330 328 329 328 328 327 328 327 325 322 320 318 315 317 316 315 312 313 311 307 302 300 301 305
328 329 330 331 334 327 327 327 325 328 328 327 322 322 322 323 323 321 320 318 317 316 316 316 314 310 311 308 307 305 299 297
328 330 330 331 333 332 328 327 327 329 327 325 321 318 321 322 321 320 320 317 317 317 315 313 311 307 303 305 304 303 302 298
332 329 329 331 333 333 331 328 327 326 324 320 319 317 319 322 319 320 319 318 316 314 313 311 305 306 306 304 301 299 298 298
331 329 329 331 333 332 333 331 330 326 323 321 320 318 318 320 320 319 318 316 314 311 307 305 306 307 305 303 302 302 302 300
329 329 329 330 330 331 331 332 329 326 325 323 322 319 322 322 320 319 317 314 310 307 305 303 306 307 305 304 302 302 302 301

GFSFLT2_sfc_thetae_078.txt.gz
Theta_e
342 342 341 339 338 337 337 338 338 338 338 338 337 336 337 338 339 341 341 340 338 336 335 333 332 329 327 326 327 330 322 321
333 338 338 337 336 335 335 336 336 336 335 334 333 334 335 335 336 337 338 337 335 333 332 330 328 325 324 323 326 326 318 320
332 330 331 334 334 335 335 335 334 333 332 331 328 327 329 331 333 334 335 334 333 331 329 327 324 322 322 323 324 315 314 314
328 327 328 331 332 331 332 333 330 330 327 327 325 328 330 330 330 331 332 331 330 329 328 325 324 317 316 322 314 313 312 309
323 325 325 325 326 326 326 326 324 325 326 327 327 329 329 328 325 324 323 326 321 323 322 320 322 320 316 312 311 310 310 311
322 322 321 319 320 320 322 325 326 322 327 329 329 328 327 325 325 324 323 322 321 321 322 321 317 314 312 311 309 308 307 311
321 322 321 320 319 321 325 325 324 325 328 332 331 328 327 327 327 325 323 324 323 321 320 318 313 311 310 309 308 308 308 312
321 320 321 318 319 322 324 324 325 327 330 331 331 329 330 329 328 326 323 324 323 322 319 314 312 310 308 308 307 307 306 307
317 318 319 318 317 316 318 324 326 326 329 329 330 331 330 329 326 324 322 325 322 318 313 311 309 309 308 307 308 306 306 305
317 319 317 317 316 315 317 318 324 326 327 329 328 329 330 328 326 325 325 320 317 314 311 309 309 309 307 306 306 306 305 304
317 318 317 317 316 315 315 319 325 326 327 327 328 331 331 329 327 325 322 320 317 314 311 310 308 307 308 307 307 305 305 306
317 318 318 317 316 316 320 324 325 327 328 329 330 331 331 328 327 322 321 317 315 312 311 310 310 309 311 309 307 307 305 303
318 318 319 318 321 320 321 321 325 327 328 328 331 330 330 328 325 322 321 316 313 314 312 309 308 309 306 307 308 307 304 303
321 322 323 323 324 325 323 324 326 328 329 330 330 329 329 327 324 321 320 316 314 313 311 310 310 309 305 303 300 302 303 305
322 324 325 326 327 327 324 326 327 326 326 328 328 326 325 324 325 321 318 315 313 313 311 310 308 309 307 302 297 295 296 301
322 323 326 329 329 324 321 320 321 325 326 327 327 325 324 325 324 321 317 316 313 313 314 311 308 305 308 309 304 300 294 292
322 324 327 329 330 329 323 324 324 326 326 325 321 321 321 322 321 320 318 317 316 313 312 309 308 305 301 301 301 299 299 294
324 326 327 329 330 329 328 325 324 324 323 321 320 320 319 319 320 319 317 316 315 312 311 309 304 303 303 302 298 296 294 293
326 326 325 328 329 329 328 327 325 325 323 321 318 317 317 317 318 316 316 316 312 310 307 304 303 302 302 301 300 297 297 296
325 325 325 326 329 329 329 330 327 327 325 321 319 319 317 317 318 317 316 313 308 306 305 304 303 302 302 300 299 300 298 297

GFSFLT2_sfc_thetae_081.txt.gz
Theta_e
328 342 342 340 338 338 338 338 338 339 339 339 339 339 340 342 343 342 341 338 336 335 334 332 329 328 327 326 326 327 320 323
326 332 338 337 336 336 336 336 336 336 336 335 335 336 337 339 339 339 338 336 335 333 332 329 327 325 324 324 324 324 316 317
326 329 334 335 335 336 335 335 334 333 333 332 329 330 331 333 336 336 336 334 333 332 330 327 325 322 321 324 319 312 310 311
328 331 331 333 334 333 332 331 328 327 326 324 328 328 329 332 333 333 333 332 331 330 328 326 321 314 313 316 308 308 306 309
327 329 331 330 331 330 327 327 326 324 323 325 328 328 325 325 325 325 325 327 322 324 321 317 316 313 308 306 306 308 307 310
323 323 322 320 321 322 322 323 322 322 323 326 326 325 322 321 320 319 319 318 317 316 317 314 310 309 308 306 305 305 307 310
319 319 318 317 317 317 317 317 318 322 326 328 326 324 323 322 320 320 319 318 318 316 316 313 308 307 306 305 305 304 309 309
318 318 318 318 318 319 322 322 323 325 327 327 328 327 324 324 321 321 320 320 319 317 316 309 307 306 304 305 304 303 305 307
318 317 318 318 317 319 322 324 325 324 325 327 326 327 326 325 322 319 319 319 319 317 312 308 306 306 304 304 304 303 302 303
317 319 317 316 315 316 319 320 320 322 323 325 324 328 327 323 322 319 320 317 313 309 307 305 303 303 302 301 303 302 302 301
315 316 315 316 315 315 317 318 319 321 321 324 322 323 327 324 322 321 318 315 312 310 308 306 305 304 304 303 302 302 301 303
316 315 315 315 314 313 314 314 319 322 321 324 323 324 326 326 324 319 319 314 311 309 306 307 305 305 308 305 302 302 302 300
315 314 314 313 311 309 311 312 319 320 322 325 325 325 326 325 321 319 316 312 309 309 306 305 304 305 303 303 304 304 301 300
315 314 314 313 312 311 314 317 319 322 324 324 325 325 325 324 319 318 317 312 309 308 307 306 306 305 302 300 297 299 301 302
314 315 315 315 316 317 319 318 320 321 322 323 325 325 324 324 321 318 316 312 308 307 307 307 304 305 304 301 296 293 294 298
314 315 315 317 320 320 319 317 318 320 320 321 323 322 322 322 322 319 316 312 310 309 310 307 305 303 303 305 301 298 293 291
316 319 320 321 322 322 321 316 320 320 321 321 320 320 320 321 320 317 315 311 310 311 309 307 305 301 299 299 300 298 296 292
318 319 321 323 324 324 321 318 320 320 321 320 318 316 316 318 319 317 314 313 311 311 308 305 303 302 301 300 299 294 295 291
318 317 318 324 324 324 324 321 320 320 320 320 316 316 315 316 317 315 315 314 311 310 308 304 302 300 300 300 300 298 296 294
316 317 317 322 324 324 325 322 322 321 322 321 319 317 316 315 315 314 314 312 310 308 306 303 303 301 300 300 300 300 299 297

GFSFLT2_sfc_thetae_084.txt.gz
Theta_e
328 327 334 336 340 338 337 338 339 340 340 341 341 341 342 342 341 340 338 336 335 334 332 330 330 328 329 328 327 327 321 322
325 326 327 336 337 336 336 337 337 338 338 338 337 338 340 340 339 337 336 335 335 333 330 329 328 326 327 326 325 323 316 319
324 328 330 333 336 336 336 336 335 335 335 335 334 338 338 336 335 335 335 334 333 331 329 327 323 324 324 322 319 311 312 314
328 332 333 334 334 334 333 332 330 331 329 328 330 333 335 335 334 334 334 332 331 330 327 324 319 309 309 315 307 306 308 311
329 329 331 330 330 330 328 327 325 323 326 327 328 329 329 330 330 328 326 327 323 322 317 315 312 308 306 305 306 305 306 310
326 328 329 329 328 325 324 322 322 323 327 326 325 323 323 322 323 320 318 318 317 315 315 309 307 307 305 304 306 305 307 311
320 322 322 323 323 322 322 321 321 325 326 325 323 321 320 319 318 316 315 316 315 315 312 308 306 305 304 303 304 306 306 309
318 318 318 318 316 318 317 318 323 325 326 326 324 322 320 319 317 316 316 317 316 315 311 306 305 303 303 303 303 306 306 307
316 316 318 317 317 317 317 323 325 325 326 326 325 323 322 319 318 317 317 317 316 314 309 307 304 304 303 302 302 303 306 306
316 318 316 317 318 320 321 322 322 323 323 325 326 324 324 320 319 317 318 317 316 312 307 304 304 302 301 301 301 301 300 305
316 316 315 315 317 318 317 318 319 321 322 322 322 326 324 321 319 317 317 314 312 308 305 304 301 301 301 300 300 299 299 304
315 316 315 316 317 317 316 316 317 319 320 322 321 321 324 321 320 318 315 311 308 306 305 304 303 302 305 303 300 300 299 298
315 315 315 314 314 313 313 312 315 318 319 320 320 319 322 322 321 317 315 312 309 307 304 304 302 303 302 302 302 302 299 298
314 314 312 312 312 313 313 312 314 316 319 320 322 323 323 324 320 319 316 312 308 307 305 304 303 303 301 299 297 299 300 300
312 312 312 311 311 309 312 313 315 316 317 318 320 322 323 324 320 319 316 313 309 307 305 305 303 303 302 300 294 293 293 296
313 313 312 312 312 310 310 310 311 315 317 318 320 322 323 324 322 318 316 312 308 307 308 305 304 302 302 303 299 296 292 291
313 313 313 313 313 312 312 314 316 316 317 318 320 320 322 322 321 318 315 312 309 308 307 307 305 303 301 300 298 297 295 292
313 312 313 313 314 315 315 315 316 317 319 319 319 320 320 319 321 317 315 312 311 311 309 306 304 302 300 300 297 295 293 292
312 312 313 314 315 316 317 319 317 317 319 319 318 317 317 318 318 315 313 313 310 311 310 306 304 301 300 300 298 297 297 295
312 313 314 317 318 318 320 321 319 320 320 321 319 319 319 320 318 315 313 312 311 309 305 304 303 303 301 301 300 299 299 298

GFSFLT2_sfc_thetae_087.txt.gz
Theta_e
327 326 335 338 338 338 338 338 340 340 342 342 342 341 340 340 339 338 337 335 333 332 330 331 332 332 330 329 327 326 319 319
325 327 330 334 336 336 335 336 338 339 340 339 338 339 338 338 336 335 335 334 332 331 329 330 331 330 328 327 326 324 318 319
325 323 324 331 333 334 335 336 337 338 338 337 336 338 337 333 333 333 334 333 331 329 327 328 328 327 326 324 320 315 316 319
325 329 328 324 332 332 332 332 335 336 337 337 337 337 334 332 332 333 333 331 330 327 324 320 315 313 316 314 308 310 313 316
328 326 328 327 325 329 329 331 331 331 333 334 335 335 333 330 328 326 326 325 320 317 315 308 306 306 304 303 304 306 307 311
325 324 327 327 330 329 328 327 326 328 329 331 332 331 329 328 324 321 320 317 314 313 310 306 305 305 306 304 304 305 307 310
322 325 326 326 325 324 323 323 325 327 327 328 329 327 325 324 318 316 316 314 314 309 307 306 304 303 304 304 304 305 306 309
319 319 325 325 324 322 321 321 324 325 325 324 325 325 322 321 315 314 314 313 313 310 306 304 303 303 302 304 305 304 305 308
317 317 319 320 320 318 318 322 325 324 324 323 322 322 321 319 315 315 314 314 313 309 305 303 302 302 301 302 304 304 305 306
317 318 317 318 316 318 322 323 323 324 324 324 323 322 319 318 316 314 315 314 313 309 305 303 301 300 300 300 300 302 303 304
315 316 317 317 318 318 319 319 321 322 323 323 323 324 321 319 317 315 315 314 312 309 304 303 300 299 299 298 298 297 300 306
316 316 316 317 316 316 316 317 318 320 321 322 323 324 323 319 316 315 314 312 309 306 303 302 301 300 303 300 298 298 297 299
315 314 316 316 315 314 314 314 316 317 319 321 320 322 323 319 317 315 313 312 310 305 303 302 301 301 300 299 300 300 298 297
314 315 315 315 314 313 313 314 315 316 319 319 321 319 321 321 318 316 313 310 307 305 304 302 302 302 299 298 296 298 299 299
314 314 313 314 314 313 312 313 314 314 317 317 318 320 320 322 321 319 316 313 309 306 304 304 302 301 301 300 294 294 294 295
312 312 312 310 310 310 310 309 309 312 312 317 315 319 319 321 321 319 315 312 308 307 306 304 303 301 301 301 298 296 293 292
311 311 311 311 310 309 308 308 308 312 314 315 315 318 321 321 321 318 316 313 311 308 306 306 307 304 302 301 298 295 293 291
310 311 311 311 310 310 308 309 311 312 314 314 315 316 318 319 320 317 317 314 310 309 309 309 308 306 303 302 300 298 295 293
311 311 311 312 310 310 310 310 312 313 314 315 315 315 315 317 317 316 315 314 312 311 310 308 307 304 302 299 300 298 298 297
310 311 311 312 311 311 311 312 313 315 315 316 317 317 318 318 317 318 316 313 311 308 307 306 305 304 302 302 301 301 300 299

GFSFLT2_sfc_thetae_090.txt.gz
Theta_e
329 332 337 338 338 338 338 339 340 341 342 342 341 340 339 338 338 338 335 334 335 336 335 332 332 331 330 328 326 324 318 318
324 326 331 333 333 336 335 336 336 338 339 339 338 338 337 337 336 335 334 332 334 335 333 332 331 330 329 327 326 324 318 318
324 324 326 330 334 335 335 335 335 335 336 337 335 336 333 332 332 332 332 331 332 333 333 331 329 328 328 326 322 318 319 319
323 325 325 326 333 334 333 333 330 333 337 337 337 334 329 329 331 331 331 329 330 332 330 328 323 319 321 319 314 316 318 319
327 328 328 326 326 332 331 331 327 328 333 335 335 333 328 327 327 325 323 323 318 319 315 313 312 309 308 308 309 311 313 317
325 324 326 327 327 331 329 326 325 326 331 333 334 331 325 324 322 320 319 316 312 309 306 307 305 305 305 304 305 307 309 313
323 325 325 326 327 328 326 324 324 327 329 332 333 330 325 322 318 316 316 313 311 306 305 305 304 305 304 304 305 307 310 312
321 323 324 324 325 325 325 325 325 328 329 329 331 328 324 320 317 316 315 314 309 307 305 303 302 304 303 304 305 305 308 313
319 320 322 323 322 322 323 324 326 327 328 325 324 324 322 318 316 315 315 314 309 306 303 302 301 302 303 305 304 304 307 311
319 321 319 320 320 320 321 324 325 324 324 323 323 322 321 316 315 315 315 313 309 305 303 301 301 301 300 302 304 304 305 308
316 318 317 317 318 319 321 323 323 323 321 322 322 321 319 317 315 315 316 313 309 306 303 302 300 300 300 300 300 301 303 306
316 317 317 317 318 319 319 319 321 322 321 321 322 321 320 318 315 315 315 312 309 306 303 302 301 300 301 300 298 298 299 303
315 316 316 317 317 317 316 316 317 317 321 321 322 322 320 318 316 315 313 313 310 306 303 303 301 301 300 300 300 299 298 297
314 315 315 315 317 317 316 316 315 317 319 320 321 323 322 319 317 315 313 311 308 306 304 302 302 302 299 298 297 299 300 300
314 314 315 315 315 314 314 314 314 314 316 317 318 319 321 321 318 316 314 312 310 306 305 304 301 301 301 300 294 295 296 297
315 314 315 315 314 312 313 313 310 311 313 316 316 319 318 320 319 317 315 312 309 308 307 306 304 301 301 302 299 298 295 294
314 314 313 313 312 312 309 310 311 311 313 314 314 316 318 318 319 317 315 315 313 310 308 306 306 304 302 301 300 297 295 294
311 312 311 310 309 308 308 307 307 308 309 311 311 312 314 316 319 318 319 316 313 311 310 308 307 306 306 304 301 299 297 296
311 311 310 310 309 309 308 308 308 308 309 311 311 312 313 314 315 315 315 315 313 312 309 310 308 306 306 304 302 301 300 299
310 310 310 310 310 309 309 309 309 310 310 311 312 314 314 314 315 317 316 315 314 312 312 310 309 308 305 303 302 301 301 300

GFSFLT2_sfc_thetae_096.txt.gz
Theta_e
332 331 332 333 339 342 341 342 342 342 341 341 341 340 340 341 340 341 340 339 339 335 334 332 331 330 328 327 326 330 327 326
334 330 329 327 338 335 334 338 339 339 339 339 338 338 339 339 339 338 338 339 337 335 333 331 330 329 328 326 326 327 327 327
334 328 327 328 337 336 333 334 338 337 338 337 335 341 341 340 337 336 338 337 335 334 332 330 329 328 327 326 326 325 327 326
333 332 332 332 335 338 335 334 339 342 339 342 338 341 340 337 336 336 337 336 333 332 331 329 327 326 326 326 326 326 326 326
330 334 334 336 338 341 337 334 337 339 338 337 338 341 340 337 334 335 338 334 333 330 329 327 328 327 325 326 327 326 326 325
332 332 335 336 336 335 335 333 337 335 338 336 341 339 338 334 331 333 336 334 332 331 329 330 329 327 326 326 326 326 325 325
330 334 334 333 335 336 333 337 332 336 335 336 338 335 331 332 332 333 333 333 332 331 330 328 327 325 325 325 325 325 326 325
330 331 332 332 332 332 330 330 332 335 336 334 334 333 330 329 330 329 332 333 332 331 329 325 323 322 323 323 323 324 325 326
327 327 330 329 329 329 330 329 329 332 332 333 330 329 328 328 329 327 327 330 330 329 326 323 319 318 317 318 320 323 324 325
324 325 327 328 324 325 327 328 329 330 332 332 329 328 327 330 327 326 326 327 326 324 322 319 318 317 316 317 317 318 322 324
322 326 324 321 322 326 326 326 327 328 330 330 328 327 327 328 327 326 326 323 322 321 320 320 318 317 316 316 317 316 319 321
322 325 323 322 323 324 324 326 327 328 327 328 328 326 327 327 326 326 324 322 321 321 320 321 320 318 314 314 316 316 316 319
319 320 322 322 321 320 321 320 323 324 325 326 326 325 326 328 325 325 325 322 322 321 320 319 318 317 313 313 313 313 314 314
319 319 320 321 321 320 321 322 322 323 324 324 325 326 327 326 325 325 325 323 322 321 320 317 317 315 311 311 306 309 311 312
320 320 319 320 321 319 318 319 321 321 322 322 323 325 327 327 325 325 326 325 322 322 319 319 315 313 315 312 309 308 312 313
323 321 319 320 321 320 318 317 315 319 322 323 324 324 323 325 326 326 326 325 324 322 320 320 319 314 314 314 317 316 310 308
321 322 319 319 321 320 318 317 317 320 321 324 324 323 324 322 323 322 324 325 324 325 322 322 321 319 316 315 314 314 314 309
320 320 318 318 321 322 319 319 316 317 318 319 323 323 326 324 323 323 324 325 325 326 327 325 323 322 322 320 317 315 313 312
320 319 317 320 322 320 319 321 320 317 318 319 321 320 320 321 323 323 323 325 326 327 327 326 326 323 322 321 317 317 317 314
319 319 319 318 316 318 320 322 319 320 322 321 321 320 321 324 324 323 323 322 327 328 328 327 327 326 325 324 322 322 315 310

GFSFLT2_sfc_thetae_099.txt.gz
Theta_e
341 339 336 332 332 330 335 342 342 343 343 342 342 340 339 340 340 339 338 337 335 334 333 332 331 329 328 328 326 329 326 325
339 334 334 334 333 329 328 339 340 340 340 339 338 338 338 339 339 339 338 336 335 334 332 331 330 328 327 327 326 328 325 325
339 335 332 330 332 332 334 338 338 338 339 337 335 341 339 340 338 337 338 334 334 333 332 330 328 327 326 326 326 326 326 325
337 336 331 329 334 329 333 334 336 341 343 342 340 341 339 337 337 336 336 333 333 332 330 328 325 322 323 325 326 327 326 325
334 335 333 331 333 336 339 332 329 337 341 342 338 340 340 341 339 338 336 332 328 328 327 324 325 323 324 328 326 326 326 325
334 336 336 337 336 339 340 335 328 336 342 341 340 339 338 340 337 335 335 332 329 328 325 329 328 326 326 327 327 325 325 325
333 335 337 337 336 339 340 337 338 335 336 341 338 336 336 334 335 335 334 334 330 330 327 329 328 326 326 326 325 326 326 324
332 333 334 335 337 338 338 333 334 334 334 337 341 339 336 330 334 335 334 334 332 331 330 328 327 325 325 325 324 325 326 326
330 331 333 333 333 335 338 337 337 335 331 334 338 334 334 331 331 334 332 334 336 333 331 328 324 323 322 323 323 325 325 325
329 328 330 331 332 334 334 332 335 332 332 331 331 330 333 332 329 327 333 332 333 330 328 323 321 319 318 319 320 323 324 325
324 325 328 330 328 329 332 332 331 332 331 331 330 328 326 325 325 326 333 332 331 329 326 324 320 319 317 318 319 319 322 323
326 324 326 325 325 328 326 326 329 329 331 329 328 326 326 324 324 326 329 328 328 326 325 323 322 320 317 316 318 319 320 321
322 324 324 325 322 323 323 323 325 327 329 328 326 325 325 325 322 327 327 324 323 324 325 325 321 323 317 316 317 317 318 318
320 322 323 323 323 322 322 322 325 326 327 326 325 324 324 324 324 326 325 323 324 325 326 321 321 321 315 314 309 311 314 315
323 322 323 322 321 322 321 321 322 322 323 323 323 322 322 322 324 325 325 325 323 325 326 323 318 318 322 315 309 308 312 314
325 323 322 321 322 320 321 318 317 319 321 322 323 323 322 323 324 325 326 327 324 324 324 324 323 316 316 317 320 317 313 310
323 323 322 323 322 323 319 318 319 320 321 321 322 323 323 324 325 327 328 326 328 327 326 324 323 322 317 316 316 316 318 312
321 320 320 321 321 322 320 318 318 320 319 318 319 321 322 323 323 326 327 328 327 326 326 324 324 325 323 322 317 315 313 313
322 320 318 320 320 320 319 318 318 318 320 320 319 319 320 320 321 322 324 327 326 327 325 326 326 324 324 323 324 322 322 318
322 320 319 320 321 322 322 322 319 317 321 322 320 321 324 322 320 320 321 324 323 326 328 325 326 327 327 327 325 324 324 321

GFSFLT2_sfc_thetae_102.txt.gz
Theta_e
344 343 339 337 334 336 334 332 330 341 342 339 337 338 339 340 340 339 338 336 336 334 333 332 332 330 328 327 326 329 322 322
341 339 337 335 337 330 330 331 329 326 340 338 338 338 338 339 338 337 337 335 335 333 332 331 330 328 327 326 326 329 321 320
339 337 335 335 333 332 330 330 330 322 338 337 336 337 337 337 336 335 336 334 333 332 331 329 327 326 326 326 327 322 321 321
338 337 334 333 332 329 328 327 326 322 337 337 337 337 337 336 334 334 334 333 332 331 329 327 324 319 320 324 320 323 321 321
335 336 334 329 331 328 329 327 326 328 335 335 336 337 335 336 334 331 330 330 327 326 324 319 317 317 319 320 323 323 321 321
335 335 331 330 332 328 330 329 327 329 336 336 336 334 334 334 333 329 326 324 323 321 319 320 319 319 321 323 321 322 321 321
333 335 334 333 332 331 331 328 326 327 332 335 334 333 334 334 332 331 324 325 323 320 320 323 322 320 322 321 322 323 321 321
332 333 334 335 333 331 331 330 326 330 333 334 335 333 334 332 331 330 327 326 325 322 321 325 323 321 321 321 321 321 321 320
329 332 334 333 332 333 333 333 331 331 332 332 333 334 333 330 329 330 328 327 326 325 325 324 321 320 320 321 320 320 322 320
329 329 332 332 331 333 333 333 333 332 330 331 332 333 331 328 328 328 329 328 328 326 325 321 319 317 316 317 318 318 320 320
327 328 328 330 330 330 332 332 332 332 330 330 330 330 327 327 327 328 330 328 327 327 323 320 316 314 314 314 315 316 318 319
326 326 328 328 327 327 328 330 331 332 330 328 328 328 326 324 325 327 327 327 326 324 321 320 316 314 313 314 313 313 315 317
323 324 325 325 323 323 323 323 325 328 330 327 327 326 325 322 322 323 323 324 323 324 321 317 317 319 313 311 311 313 313 314
322 324 323 324 324 323 323 323 324 326 329 327 327 325 324 320 321 321 321 321 322 321 318 317 318 318 312 309 304 307 310 312
321 322 323 324 324 323 322 324 324 324 325 325 325 324 323 322 322 322 320 320 320 319 320 318 315 315 314 311 306 303 305 308
323 322 322 323 323 323 320 319 318 321 324 324 323 324 322 322 323 322 321 321 319 320 321 319 317 312 313 315 313 312 307 302
322 323 322 322 322 323 321 318 319 320 321 320 321 321 320 320 321 322 321 321 321 320 319 319 319 315 313 312 311 311 312 307
321 321 320 322 321 322 321 319 319 318 319 318 318 318 319 319 319 321 321 321 321 321 321 319 319 318 316 314 312 309 307 307
320 319 318 321 320 322 320 319 320 318 319 319 317 317 317 318 319 320 320 320 321 322 321 320 319 319 319 317 316 314 315 312
319 319 318 319 320 320 320 319 320 319 319 319 319 318 318 320 320 321 321 321 321 321 321 322 321 320 319 318 318 318 317 316

GFSFLT2_sfc_thetae_105.txt.gz
Theta_e
337 335 336 340 340 339 342 342 341 341 338 339 340 337 338 340 340 340 338 337 337 336 335 333 332 330 328 325 328 327 321 322
333 332 331 328 329 333 334 337 336 338 338 337 336 337 338 338 338 338 337 336 336 335 333 332 330 328 326 327 327 326 320 320
331 329 327 328 328 329 331 333 334 334 331 329 333 335 337 337 336 336 336 335 334 333 332 329 327 326 326 326 324 320 320 320
330 329 328 328 329 327 327 328 329 329 330 324 333 334 335 334 334 334 334 333 332 331 329 328 324 318 318 322 319 320 320 320
330 330 328 328 326 324 327 326 327 325 325 325 332 335 334 333 332 331 329 330 326 325 323 319 317 316 316 316 319 319 319 320
328 328 325 324 325 325 326 325 324 325 324 330 331 333 333 331 329 327 325 324 321 318 316 316 314 316 317 319 320 319 319 320
327 327 326 325 326 325 328 327 326 327 325 332 333 332 332 330 326 324 322 321 319 315 315 316 314 315 317 318 319 319 319 320
327 328 328 328 327 326 328 325 325 328 325 332 333 332 332 329 324 321 320 320 318 316 317 317 315 315 318 318 319 318 318 319
326 329 330 328 329 328 329 325 325 328 331 333 332 333 332 329 325 321 321 321 318 317 317 318 317 318 316 317 319 318 318 318
325 329 328 326 329 329 330 326 326 329 330 331 331 332 331 329 327 322 324 322 319 319 318 319 315 315 314 315 315 318 318 317
323 325 325 325 325 328 328 329 328 329 330 331 331 330 328 328 328 326 326 322 323 321 320 319 314 313 314 312 312 314 317 318
321 323 322 324 321 324 326 329 330 328 328 330 330 329 328 326 327 326 327 323 325 322 319 317 314 313 315 312 310 312 314 315
321 323 324 320 318 318 318 322 327 328 327 327 328 327 327 326 326 325 327 324 324 322 319 314 311 310 308 307 308 309 311 312
321 322 323 320 319 320 320 319 321 329 328 327 327 326 325 323 324 323 325 324 322 320 317 314 312 313 308 307 302 305 306 308
320 322 321 319 322 322 319 319 321 322 326 325 326 326 325 322 322 321 324 323 320 318 317 314 312 312 312 309 303 302 302 305
320 321 322 322 322 320 319 318 317 321 321 325 324 325 324 320 322 321 321 323 320 318 318 316 313 310 311 313 311 310 302 299
321 321 321 321 321 321 319 319 319 322 323 323 323 324 323 320 322 321 320 320 319 318 318 318 315 313 311 310 308 308 307 304
320 320 320 320 320 320 319 318 319 319 322 320 321 321 321 320 321 320 320 320 319 319 318 318 317 315 313 312 308 307 305 304
319 319 318 319 319 319 317 317 319 318 319 319 318 318 318 319 320 320 320 320 320 319 318 318 318 317 313 312 313 311 310 307
319 317 317 319 319 319 317 318 318 319 318 318 318 318 318 318 318 319 320 320 319 319 318 318 318 318 316 317 316 315 315 313

GFSFLT2_sfc_thetae_108.txt.gz
Theta_e
336 338 341 343 342 343 342 342 341 340 338 337 339 338 338 340 340 341 340 339 338 338 336 334 333 331 329 329 328 327 322 322
332 331 331 330 334 337 338 339 337 337 336 335 334 332 334 338 339 339 339 338 337 336 334 332 331 329 328 327 326 326 321 320
330 328 326 326 327 329 334 333 334 335 335 333 331 329 333 338 337 337 337 336 336 335 333 331 328 328 328 327 325 321 321 320
327 326 325 325 329 326 326 328 332 334 333 332 333 332 334 335 334 335 335 334 334 333 331 329 325 320 323 324 319 320 320 320
327 327 326 324 325 323 324 327 327 330 330 333 334 333 333 333 332 332 331 332 328 328 326 321 317 316 316 318 318 318 319 320
327 327 325 323 323 322 322 325 327 327 328 330 330 330 331 332 330 329 327 326 321 320 316 315 315 316 317 317 318 317 318 320
326 326 323 322 322 322 323 323 324 326 326 326 328 330 330 330 328 327 324 320 317 314 314 313 313 315 318 317 317 317 318 320
325 325 324 323 324 323 325 327 325 325 326 326 326 330 330 328 326 322 320 319 315 313 313 311 312 314 316 317 317 317 318 318
325 325 325 324 325 324 326 326 325 326 325 327 326 329 329 326 323 319 319 316 312 312 314 313 314 315 315 316 317 316 317 318
324 328 325 325 326 327 327 325 326 327 326 329 329 329 330 325 320 318 319 317 313 314 314 315 314 314 313 315 315 316 316 317
322 324 323 323 328 327 328 324 326 329 327 330 330 331 329 324 320 318 318 317 314 316 316 317 314 312 313 311 314 314 315 317
321 321 322 323 322 327 328 324 326 329 330 329 331 331 329 325 320 320 319 319 314 318 317 316 315 312 315 312 313 315 316 315
319 319 319 319 317 321 324 323 325 325 328 329 330 330 329 327 322 322 320 320 315 319 319 315 310 311 309 307 308 311 313 314
318 320 320 319 318 318 321 322 326 326 327 329 329 328 328 328 325 323 321 319 320 319 317 312 311 310 307 305 302 305 307 309
318 320 322 321 318 318 316 319 322 324 324 325 327 327 327 327 326 324 324 322 321 320 317 315 312 310 310 306 301 300 302 306
318 320 321 321 319 318 317 314 317 320 325 325 327 326 325 326 326 326 326 324 322 321 318 315 313 310 309 311 309 307 304 301
318 320 320 322 321 320 319 318 318 317 321 323 325 325 325 323 323 324 325 324 322 319 317 317 314 312 310 309 308 308 307 302
317 319 320 320 320 320 319 318 319 319 320 320 322 324 323 321 321 322 324 323 320 319 318 317 316 315 314 311 310 308 307 306
316 318 317 319 319 320 319 319 320 319 321 321 321 322 321 319 320 320 320 322 321 320 319 317 317 316 314 313 312 310 310 308
317 317 317 318 318 319 319 317 319 318 321 321 321 321 321 320 320 320 320 320 320 320 318 317 317 316 315 314 314 311 312 311

GFSFLT2_sfc_thetae_111.txt.gz
Theta_e
337 340 342 342 342 342 342 342 342 341 339 338 339 337 337 339 339 339 341 339 339 338 337 335 333 332 332 330 329 328 322 321
334 335 338 340 343 340 340 339 340 338 335 334 335 335 336 337 337 338 339 338 338 337 334 332 331 331 330 328 327 326 319 320
329 329 330 331 333 337 338 341 334 336 334 335 333 333 334 335 336 338 338 337 336 335 333 330 329 330 329 327 325 321 321 320
328 326 325 325 328 328 328 333 335 335 333 334 331 329 330 332 335 336 336 336 335 334 331 328 327 325 325 324 320 320 320 321
326 326 324 323 325 323 322 323 331 333 332 331 330 328 330 334 334 334 332 333 330 329 327 320 319 321 318 318 318 318 317 319
325 326 324 323 324 322 325 325 327 331 332 330 330 328 330 329 331 330 328 327 323 323 319 315 315 318 318 317 317 317 317 318
325 326 324 323 322 320 322 324 325 329 329 331 331 329 328 330 331 330 325 320 320 316 313 315 314 316 316 317 316 316 317 318
326 326 325 322 322 320 321 321 324 326 328 329 331 330 329 330 329 327 322 321 316 316 314 313 313 315 315 316 315 316 316 316
325 326 323 321 322 320 322 324 324 323 325 327 328 330 329 329 328 323 320 316 312 311 311 310 312 315 314 315 316 316 316 316
325 327 323 321 323 322 323 325 324 324 325 325 327 328 330 327 324 321 318 313 312 312 312 311 310 314 313 314 314 315 315 315
323 324 323 322 322 324 325 322 324 327 327 325 325 329 327 325 322 318 316 313 312 311 311 312 311 313 314 313 312 312 314 317
322 323 322 321 325 327 325 322 326 326 327 325 325 328 327 324 320 317 316 312 310 312 313 312 311 313 315 312 311 312 313 314
321 321 320 321 321 322 322 322 325 325 327 327 327 328 326 322 319 317 315 311 310 313 313 312 309 311 309 308 307 311 312 312
320 321 319 318 319 321 323 323 325 326 327 328 328 328 326 323 319 317 315 312 311 314 315 310 310 311 308 306 301 304 309 311
319 319 320 317 317 317 319 322 324 323 324 326 328 328 327 325 320 319 316 315 312 316 316 315 311 308 311 306 301 300 303 305
318 319 318 317 317 316 318 320 320 322 323 326 327 328 328 327 322 320 317 317 314 316 318 316 312 309 308 309 308 306 302 300
317 318 319 320 318 317 315 313 317 321 324 323 325 326 327 327 325 322 320 319 319 317 318 314 314 312 310 308 308 308 306 303
316 317 319 321 320 316 315 313 314 315 319 321 323 325 325 326 326 324 323 322 321 320 318 315 314 312 312 310 309 308 306 305
316 317 317 319 320 318 317 317 318 316 316 318 319 323 323 324 324 324 324 324 321 318 317 316 315 313 313 312 311 310 310 309
316 316 318 319 319 319 319 319 319 320 319 319 321 321 323 322 322 323 324 321 319 319 318 317 317 316 315 314 314 313 312 310

GFSFLT2_sfc_thetae_114.txt.gz
Theta_e
336 339 342 343 342 342 342 342 342 342 342 340 339 339 338 339 339 340 340 339 340 339 338 335 336 334 332 330 328 327 320 322
337 339 341 341 342 340 339 340 340 340 339 339 336 335 335 338 337 338 339 339 339 338 335 333 334 332 330 328 328 326 320 321
332 337 338 340 341 341 340 340 339 337 337 336 332 331 332 335 335 337 338 337 337 336 333 331 331 330 329 328 324 320 321 321
329 332 335 336 337 337 341 341 340 336 334 334 333 332 332 333 334 335 336 336 335 334 331 330 329 326 326 325 320 320 321 321
327 328 328 328 331 334 332 333 337 335 331 332 333 331 332 330 332 333 333 334 331 329 326 324 323 323 319 319 319 320 320 320
326 326 325 323 324 324 326 327 331 335 333 331 329 328 328 330 331 332 332 330 328 324 319 317 320 319 318 318 318 318 318 319
325 326 325 323 322 321 325 324 327 332 332 332 330 327 327 330 330 330 329 329 327 319 315 315 315 316 318 318 317 318 318 319
324 326 325 323 322 321 324 325 326 328 331 330 330 328 328 328 328 328 326 326 324 318 314 313 315 316 315 316 316 317 317 317
324 325 324 323 322 320 321 322 323 325 328 331 330 329 328 328 329 327 324 322 319 315 311 311 314 314 314 314 315 316 317 317
324 327 323 322 322 320 321 323 322 323 326 328 330 330 329 328 328 325 322 319 317 315 312 310 312 313 312 313 314 315 316 316
323 325 323 321 320 320 321 323 323 323 324 325 327 329 329 328 328 324 318 316 316 314 311 312 312 312 313 312 312 314 315 316
323 324 323 321 320 324 324 322 322 324 326 325 325 326 327 328 325 319 318 314 313 314 311 311 311 313 314 311 311 312 313 314
322 322 321 322 323 323 323 321 322 325 325 326 325 325 326 325 320 318 316 313 312 312 312 311 309 311 309 308 308 312 311 312
321 321 321 323 324 324 323 322 324 325 325 325 325 326 324 322 320 318 315 312 310 311 312 309 309 312 308 306 304 307 310 311
320 320 322 322 322 323 323 322 323 323 324 323 325 325 323 321 319 317 315 311 310 311 312 312 309 308 313 308 302 303 305 306
319 320 321 318 319 321 321 320 319 322 322 325 324 326 324 321 319 318 315 311 310 311 313 313 311 308 308 308 308 306 304 301
318 320 320 318 318 319 320 319 320 322 324 323 325 326 325 322 320 318 315 314 311 312 314 314 312 312 309 308 308 308 306 303
318 318 319 318 317 314 315 314 318 321 322 322 323 325 326 325 321 319 317 315 313 313 316 314 313 314 311 309 308 307 307 305
317 318 318 318 317 316 313 313 317 319 321 322 322 323 324 324 324 321 319 317 318 315 317 315 313 312 311 310 311 310 310 309
317 317 317 317 317 317 316 314 315 314 316 319 321 323 324 325 325 323 321 319 320 318 317 316 314 313 313 313 313 312 312 310

GFSFLT2_sfc_thetae_117.txt.gz
Theta_e
346 345 345 343 342 342 342 342 343 342 343 341 342 340 339 340 340 341 340 340 341 339 339 338 337 335 333 330 329 331 333 332
344 343 343 348 347 340 340 340 340 341 340 339 337 337 338 339 339 340 340 340 339 339 338 336 335 332 330 329 328 329 331 331
343 340 341 342 345 345 341 341 339 338 339 337 335 340 341 338 335 337 339 338 338 336 335 334 332 330 329 328 327 330 330 330
340 338 339 340 341 343 347 343 347 346 344 342 342 339 338 337 335 336 338 337 336 334 333 333 331 332 330 327 329 329 329 328
338 336 338 338 339 341 344 343 343 342 344 343 340 336 336 338 338 339 340 337 335 334 332 334 333 332 330 328 328 328 328 327
337 339 336 336 338 339 341 342 340 338 338 339 336 334 336 335 337 338 338 337 335 333 332 332 333 331 329 328 328 327 327 326
336 338 338 336 334 335 336 337 337 338 335 333 334 334 335 331 332 334 335 333 334 331 329 327 329 328 327 327 326 327 326 326
334 336 337 337 336 335 332 332 333 335 334 332 334 334 334 332 330 331 332 331 332 328 326 324 326 327 326 326 326 326 326 327
331 334 336 335 334 334 330 330 332 335 337 333 332 331 330 331 329 329 330 329 326 325 324 324 325 326 326 325 324 325 325 327
329 331 333 334 333 332 328 328 329 330 331 332 331 332 330 329 329 328 327 325 324 321 324 322 323 324 323 323 323 324 325 326
326 330 331 333 333 331 328 327 326 326 327 329 331 331 331 330 328 327 324 322 322 323 323 323 322 322 322 322 323 323 324 324
326 330 331 332 331 329 327 326 325 325 325 327 328 330 330 329 328 325 323 321 321 322 322 322 322 322 319 320 322 323 323 324
327 328 329 329 326 324 323 322 322 324 326 327 329 328 328 328 328 323 322 319 322 324 322 320 320 322 319 318 319 321 322 322
327 328 326 329 328 327 327 325 325 325 328 328 328 328 326 327 326 322 321 319 319 320 321 319 320 321 318 317 312 315 319 320
326 327 325 329 330 328 328 326 325 325 326 326 326 325 326 324 323 322 319 317 316 320 321 320 316 319 322 318 312 312 314 318
326 326 325 326 328 327 325 323 320 323 325 325 325 324 322 322 322 319 317 317 316 320 319 319 318 317 319 318 321 318 313 309
326 326 324 323 325 326 326 322 323 328 327 324 326 325 322 321 320 318 315 315 318 318 320 321 322 320 318 316 316 316 317 314
323 323 321 321 323 324 324 322 322 324 325 323 325 325 323 322 319 317 315 315 316 317 318 320 321 322 322 319 316 314 313 313
320 321 319 320 321 322 323 323 326 325 324 325 322 324 325 322 321 318 317 317 316 317 318 319 320 320 321 319 319 318 317 317
318 318 318 319 321 322 325 326 325 325 325 326 325 324 324 325 323 323 319 318 315 317 319 319 320 321 321 320 319 317 318 317

GFSFLT2_sfc_thetae_120.txt.gz
Theta_e
352 349 347 342 343 343 342 342 343 344 345 345 342 341 341 340 341 343 342 342 342 342 340 338 338 336 334 332 332 334 335 332
351 350 348 350 348 341 340 340 340 341 342 340 339 339 338 340 340 341 341 341 341 340 338 337 335 333 331 330 330 332 332 332
352 351 348 349 348 347 342 341 340 340 341 338 337 345 344 342 339 338 340 340 339 339 336 334 332 331 330 329 330 331 332 331
350 351 349 348 347 347 348 348 350 350 350 348 344 345 344 340 338 337 339 338 338 337 335 332 332 335 333 329 332 332 331 330
347 348 349 348 345 346 347 346 349 347 348 349 347 344 344 340 338 339 340 338 335 337 335 336 338 334 332 332 332 332 330 329
346 347 345 346 344 344 345 349 347 349 347 349 347 343 340 338 337 335 339 339 338 337 334 335 334 332 332 332 333 330 329 327
341 346 345 343 342 343 344 345 348 348 347 347 347 342 339 338 336 338 337 340 339 335 333 332 333 332 331 333 331 330 329 327
338 343 345 344 340 341 341 343 345 345 344 344 346 342 338 334 333 340 334 336 336 333 333 332 333 333 332 332 331 328 327 328
331 336 343 345 344 339 338 340 341 343 341 343 343 340 339 336 332 334 333 332 332 331 332 331 330 331 331 331 330 328 326 327
323 328 336 342 344 345 340 339 337 339 342 339 341 338 337 334 333 331 334 331 329 327 329 329 329 329 329 329 328 327 328 327
322 326 332 338 342 343 343 342 337 337 341 340 337 336 336 332 332 330 332 328 326 325 327 330 328 328 328 328 326 326 327 325
322 322 330 336 339 341 339 334 332 334 336 337 339 336 332 332 330 329 329 326 324 324 324 329 329 328 325 323 326 327 327 326
327 327 331 335 335 334 330 328 327 329 332 333 331 334 332 330 329 328 326 324 323 325 324 328 326 328 325 323 323 327 327 324
328 330 333 334 333 332 332 330 330 330 329 331 330 331 333 330 329 327 325 323 322 323 324 325 326 328 322 321 314 318 323 324
328 330 332 333 334 331 333 331 331 326 327 327 329 333 334 331 329 326 324 323 320 321 323 322 323 326 327 321 315 313 318 323
330 330 331 329 331 330 331 329 328 330 330 330 332 333 332 329 327 326 323 323 321 320 322 324 328 323 326 323 324 322 316 314
330 330 328 328 330 333 333 332 331 332 328 329 330 327 328 329 326 322 323 322 322 321 322 328 328 325 325 322 323 324 323 318
326 326 326 327 328 332 333 333 330 330 328 329 330 324 323 324 321 320 319 320 320 320 321 326 327 328 325 325 322 320 319 319
323 322 323 323 325 329 330 330 330 328 329 328 328 324 321 320 320 318 317 318 318 320 320 326 327 327 327 326 324 322 321 320
324 323 321 323 323 325 328 329 328 327 329 328 327 326 324 323 320 319 316 316 317 318 320 324 327 328 328 327 324 323 323 321

GFSFLT2_sfc_thetae_123.txt.gz
Theta_e
352 351 348 344 344 344 343 343 344 346 345 345 345 342 339 340 341 341 341 341 342 342 340 339 339 337 336 334 333 335 335 334
352 352 351 350 350 342 341 341 341 343 344 342 340 339 338 340 340 340 342 343 342 341 338 337 336 334 333 332 331 333 335 330
353 352 351 352 351 348 342 341 340 341 343 339 337 346 343 342 339 340 342 341 341 339 337 335 333 332 332 331 331 330 331 329
351 353 352 352 347 350 349 349 348 348 349 350 349 349 346 342 339 337 340 339 339 337 335 332 333 335 332 331 332 330 329 330
347 351 353 351 348 348 347 347 348 348 349 350 350 345 347 344 345 339 342 338 340 338 335 338 338 336 334 333 331 331 329 331
345 349 351 351 349 346 347 347 348 348 347 353 350 347 347 342 344 342 338 339 340 337 336 334 337 335 332 330 333 329 328 330
342 348 350 349 350 345 347 348 347 348 349 352 350 346 343 343 342 337 337 341 337 337 336 336 334 331 330 331 331 330 329 328
338 343 348 348 347 345 345 350 348 348 349 348 352 347 345 341 341 342 339 340 338 334 336 330 331 331 331 330 330 329 327 328
331 337 343 348 346 343 343 346 348 348 348 352 350 348 345 342 339 340 338 335 333 332 336 330 328 330 330 330 329 328 326 327
323 323 337 344 347 344 341 343 345 347 347 346 348 349 345 343 339 338 337 333 331 329 329 328 328 329 330 327 327 326 325 327
322 326 331 340 344 345 345 340 340 342 346 345 341 344 344 341 338 335 336 335 330 328 327 327 328 327 329 327 328 325 325 324
327 326 330 334 340 344 345 343 341 338 341 344 344 344 342 340 336 334 336 331 328 326 325 327 329 329 326 324 325 326 326 326
326 327 331 328 330 335 340 340 337 334 337 344 342 340 341 336 335 332 330 327 326 326 324 323 326 328 325 321 324 326 327 325
330 329 330 330 330 335 339 339 330 330 334 338 339 339 336 336 334 329 330 327 324 324 323 321 322 328 323 318 314 318 322 324
330 329 331 333 334 336 334 332 330 328 330 331 336 335 336 336 333 329 327 327 323 323 323 321 319 324 326 321 314 313 317 321
332 332 332 333 336 335 331 327 326 327 329 330 334 334 334 334 334 330 326 326 324 323 324 323 321 320 325 326 326 322 316 313
329 332 332 333 333 334 330 329 332 333 334 331 331 333 334 335 334 331 326 325 324 324 323 322 323 323 324 323 324 325 324 318
326 328 328 328 330 331 330 330 332 332 331 330 331 333 333 333 332 329 328 324 323 323 324 322 322 324 325 326 324 321 319 321
326 325 325 327 328 330 330 332 331 333 329 329 330 327 326 327 327 324 324 323 322 322 322 321 321 322 322 325 326 324 326 324
323 325 324 324 327 327 328 331 331 332 331 331 331 328 326 326 323 322 321 320 321 322 322 322 322 322 322 326 327 325 326 324